Time,TemperatureF,DewpointF,PressureIn,WindDirection,WindDirectionDegrees,WindSpeedMPH,WindSpeedGustMPH,Humidity,HourlyPrecipIn,Conditions,Clouds,dailyrainin,SoftwareType,DateUTC
2013-03-27 00:00:00,27.0,17.1,30.35,SW,227,2.7,2.7,66,0.00,,FEW043,0.00,VWS V14.01,2013-03-27 05:00:00,
2013-03-27 00:03:00,27.0,17.1,30.35,SW,227,0.0,0.0,66,0.00,,FEW043,0.00,VWS V14.01,2013-03-27 05:03:00,
2013-03-27 00:04:00,27.0,17.1,30.35,SW,227,0.0,0.0,66,0.00,,FEW043,0.00,VWS V14.01,2013-03-27 05:04:00,
2013-03-27 00:05:00,27.0,17.1,30.35,SW,227,0.0,0.0,66,0.00,,FEW043,0.00,VWS V14.01,2013-03-27 05:05:00,
2013-03-27 00:06:00,27.0,17.1,30.35,SW,227,0.0,0.0,66,0.00,,FEW043,0.00,VWS V14.01,2013-03-27 05:06:00,
2013-03-27 00:08:00,27.0,17.1,30.35,SW,227,0.0,0.0,66,0.00,,FEW043,0.00,VWS V14.01,2013-03-27 05:08:00,
2013-03-27 00:10:00,27.0,17.1,30.35,SW,227,0.0,0.0,66,0.00,,FEW043,0.00,VWS V14.01,2013-03-27 05:10:00,
2013-03-27 00:11:00,27.0,17.1,30.35,SW,227,0.0,0.0,66,0.00,,FEW043,0.00,VWS V14.01,2013-03-27 05:11:00,
2013-03-27 00:13:00,27.0,17.1,30.35,SW,227,0.0,0.0,66,0.00,,FEW043,0.00,VWS V14.01,2013-03-27 05:13:00,
2013-03-27 00:15:00,27.0,17.8,30.35,SW,227,0.0,0.0,68,0.00,,FEW043,0.00,VWS V14.01,2013-03-27 05:15:00,
2013-03-27 00:16:00,27.0,17.8,30.35,SW,227,0.0,0.0,68,0.00,,FEW043,0.00,VWS V14.01,2013-03-27 05:16:00,
2013-03-27 00:19:00,27.0,17.8,30.35,SW,227,2.7,2.7,68,0.00,,FEW043,0.00,VWS V14.01,2013-03-27 05:19:00,
2013-03-27 00:20:00,27.0,17.8,30.35,SW,227,2.7,2.7,68,0.00,,FEW043,0.00,VWS V14.01,2013-03-27 05:20:00,
2013-03-27 00:21:00,27.0,17.8,30.35,SW,227,2.7,2.7,68,0.00,,FEW043,0.00,VWS V14.01,2013-03-27 05:21:00,
2013-03-27 00:24:00,27.0,17.8,30.35,SW,227,2.7,2.7,68,0.00,,FEW043,0.00,VWS V14.01,2013-03-27 05:24:00,
2013-03-27 00:26:00,27.0,17.8,30.35,SW,227,2.2,2.2,68,0.00,,FEW043,0.00,VWS V14.01,2013-03-27 05:26:00,
2013-03-27 00:27:00,27.0,17.8,30.35,SW,227,0.0,0.0,68,0.00,,FEW043,0.00,VWS V14.01,2013-03-27 05:27:00,
2013-03-27 00:29:00,27.0,17.8,30.35,SW,227,0.0,0.0,68,0.00,,FEW043,0.00,VWS V14.01,2013-03-27 05:29:00,
2013-03-27 00:31:00,27.0,17.8,30.35,SW,227,3.1,3.1,68,0.00,,FEW043,0.00,VWS V14.01,2013-03-27 05:31:00,
2013-03-27 00:32:00,27.0,17.8,30.35,SW,227,2.7,3.1,68,0.00,,FEW043,0.00,VWS V14.01,2013-03-27 05:32:00,
2013-03-27 00:34:00,27.0,17.8,30.35,SW,227,3.6,3.6,68,0.00,,FEW043,0.00,VWS V14.01,2013-03-27 05:34:00,
2013-03-27 00:37:00,27.0,17.8,30.35,SW,227,0.0,2.2,68,0.00,,FEW043,0.00,VWS V14.01,2013-03-27 05:37:00,
2013-03-27 00:38:00,27.0,17.8,30.35,SW,227,0.0,0.0,68,0.00,,FEW043,0.00,VWS V14.01,2013-03-27 05:38:00,
2013-03-27 00:39:00,27.0,17.8,30.35,SW,227,0.0,0.0,68,0.00,,FEW043,0.00,VWS V14.01,2013-03-27 05:39:00,
2013-03-27 00:43:00,26.8,17.6,30.35,SW,227,0.0,0.0,68,0.00,,FEW043,0.00,VWS V14.01,2013-03-27 05:43:00,
2013-03-27 00:44:00,26.8,17.6,30.35,SW,227,0.0,0.0,68,0.00,,FEW043,0.00,VWS V14.01,2013-03-27 05:44:00,
2013-03-27 00:45:00,26.8,17.6,30.35,SW,227,0.0,0.0,68,0.00,,FEW043,0.00,VWS V14.01,2013-03-27 05:45:00,
2013-03-27 00:48:00,26.6,18.1,30.35,SW,227,0.0,0.0,70,0.00,,FEW043,0.00,VWS V14.01,2013-03-27 05:48:00,
2013-03-27 00:50:00,26.6,18.1,30.35,SW,227,0.0,0.0,70,0.00,,FEW043,0.00,VWS V14.01,2013-03-27 05:50:00,
2013-03-27 00:54:00,26.6,18.1,30.35,SW,227,0.0,0.0,70,0.00,,FEW043,0.00,VWS V14.01,2013-03-27 05:54:00,
2013-03-27 00:55:00,26.6,18.1,30.35,SW,227,0.0,0.0,70,0.00,,FEW043,0.00,VWS V14.01,2013-03-27 05:55:00,
2013-03-27 00:56:00,26.6,18.1,30.35,SW,227,0.0,0.0,70,0.00,,FEW043,0.00,VWS V14.01,2013-03-27 05:56:00,
2013-03-27 00:59:00,26.4,18.0,30.35,SSW,212,0.0,0.0,70,0.00,,FEW043,0.00,VWS V14.01,2013-03-27 05:59:00,
2013-03-27 01:02:00,26.4,18.0,30.35,SSW,212,0.0,0.0,70,0.00,,FEW043,0.00,VWS V14.01,2013-03-27 06:02:00,
2013-03-27 01:04:00,26.4,18.0,30.35,SSW,194,0.0,0.0,70,0.00,,FEW043,0.00,VWS V14.01,2013-03-27 06:04:00,
2013-03-27 01:07:00,26.4,18.0,30.35,SSW,194,0.0,0.0,70,0.00,,FEW043,0.00,VWS V14.01,2013-03-27 06:07:00,
2013-03-27 01:08:00,26.4,18.0,30.35,SSW,194,0.0,0.0,70,0.00,,FEW043,0.00,VWS V14.01,2013-03-27 06:08:00,
2013-03-27 01:09:00,26.4,18.0,30.35,SSW,194,0.0,0.0,70,0.00,,FEW043,0.00,VWS V14.01,2013-03-27 06:09:00,
2013-03-27 01:13:00,26.4,18.6,30.35,SSW,194,3.1,3.6,72,0.00,,FEW043,0.00,VWS V14.01,2013-03-27 06:13:00,
2013-03-27 01:14:00,26.4,18.6,30.35,SSW,194,3.1,3.1,72,0.00,,FEW043,0.00,VWS V14.01,2013-03-27 06:14:00,
2013-03-27 01:15:00,26.4,18.6,30.35,SSW,194,3.1,3.1,72,0.00,,FEW043,0.00,VWS V14.01,2013-03-27 06:15:00,
2013-03-27 01:18:00,26.2,17.8,30.35,SSW,195,2.2,3.1,70,0.00,,FEW043,0.00,VWS V14.01,2013-03-27 06:18:00,
2013-03-27 01:19:00,26.2,17.8,30.35,SSW,195,2.7,2.7,70,0.00,,FEW043,0.00,VWS V14.01,2013-03-27 06:19:00,
2013-03-27 01:20:00,26.2,17.8,30.35,SSW,195,2.2,2.7,70,0.00,,FEW043,0.00,VWS V14.01,2013-03-27 06:20:00,
2013-03-27 01:23:00,26.1,17.6,30.35,SSW,195,0.0,3.1,70,0.00,,FEW043,0.00,VWS V14.01,2013-03-27 06:23:00,
2013-03-27 01:24:00,26.1,17.6,30.35,SSW,195,2.7,3.1,70,0.00,,FEW043,0.00,VWS V14.01,2013-03-27 06:24:00,
2013-03-27 01:25:00,26.1,17.6,30.35,SSW,195,2.2,2.2,70,0.00,,FEW043,0.00,VWS V14.01,2013-03-27 06:25:00,
2013-03-27 01:26:00,25.9,17.5,30.35,SSW,195,2.7,2.7,70,0.00,,FEW043,0.00,VWS V14.01,2013-03-27 06:26:00,
2013-03-27 01:29:00,25.9,17.5,30.35,SSW,195,0.0,2.2,70,0.00,,FEW043,0.00,VWS V14.01,2013-03-27 06:29:00,
2013-03-27 01:32:00,25.5,17.1,30.35,SSW,195,0.0,0.0,70,0.00,,FEW043,0.00,VWS V14.01,2013-03-27 06:32:00,
2013-03-27 01:34:00,25.5,17.8,30.35,SSW,195,0.0,0.0,72,0.00,,FEW043,0.00,VWS V14.01,2013-03-27 06:34:00,
2013-03-27 01:37:00,25.3,17.6,30.35,SSW,195,0.0,0.0,72,0.00,,FEW043,0.00,VWS V14.01,2013-03-27 06:37:00,
2013-03-27 01:38:00,25.3,17.6,30.35,SSW,195,0.0,0.0,72,0.00,,FEW043,0.00,VWS V14.01,2013-03-27 06:38:00,
2013-03-27 01:39:00,25.3,17.6,30.35,SSW,195,0.0,0.0,72,0.00,,FEW043,0.00,VWS V14.01,2013-03-27 06:39:00,
2013-03-27 01:42:00,25.2,16.8,30.35,SSW,195,0.0,0.0,70,0.00,,FEW043,0.00,VWS V14.01,2013-03-27 06:42:00,
2013-03-27 01:43:00,25.0,16.6,30.35,SSW,195,0.0,0.0,70,0.00,,FEW043,0.00,VWS V14.01,2013-03-27 06:43:00,
2013-03-27 01:44:00,24.8,17.1,30.35,SSW,195,0.0,0.0,72,0.00,,FEW043,0.00,VWS V14.01,2013-03-27 06:44:00,
2013-03-27 01:47:00,24.8,17.1,30.35,SSW,195,0.0,0.0,72,0.00,,FEW043,0.00,VWS V14.01,2013-03-27 06:47:00,
2013-03-27 01:48:00,24.6,16.9,30.35,SSW,195,0.0,0.0,72,0.00,,FEW043,0.00,VWS V14.01,2013-03-27 06:48:00,
2013-03-27 01:49:00,24.8,17.7,30.35,SSW,195,0.0,0.0,74,0.00,,FEW043,0.00,VWS V14.01,2013-03-27 06:49:00,
2013-03-27 01:50:00,24.8,17.7,30.35,SSW,195,0.0,0.0,74,0.00,,FEW043,0.00,VWS V14.01,2013-03-27 06:50:00,
2013-03-27 01:53:00,24.8,17.7,30.35,SSW,195,0.0,0.0,74,0.00,,FEW043,0.00,VWS V14.01,2013-03-27 06:53:00,
2013-03-27 01:54:00,24.8,17.7,30.35,SSW,195,0.0,0.0,74,0.00,,FEW043,0.00,VWS V14.01,2013-03-27 06:54:00,
2013-03-27 01:55:00,24.8,17.7,30.35,SSW,195,0.0,0.0,74,0.00,,FEW043,0.00,VWS V14.01,2013-03-27 06:55:00,
2013-03-27 01:56:00,24.8,17.7,30.35,SSW,195,0.0,0.0,74,0.00,,FEW043,0.00,VWS V14.01,2013-03-27 06:56:00,
2013-03-27 01:58:00,24.8,17.7,30.35,SSW,195,0.0,0.0,74,0.00,,FEW043,0.00,VWS V14.01,2013-03-27 06:58:00,
2013-03-27 01:59:00,24.8,17.7,30.35,SSW,195,0.0,0.0,74,0.00,,FEW043,0.00,VWS V14.01,2013-03-27 06:59:00,
2013-03-27 02:01:00,25.0,17.9,30.35,SSW,195,0.0,0.0,74,0.00,,FEW043,0.00,VWS V14.01,2013-03-27 07:01:00,
2013-03-27 02:02:00,25.0,17.9,30.35,SSW,195,0.0,0.0,74,0.00,,FEW043,0.00,VWS V14.01,2013-03-27 07:02:00,
2013-03-27 02:03:00,25.0,17.9,30.35,SSW,195,0.0,0.0,74,0.00,,FEW043,0.00,VWS V14.01,2013-03-27 07:03:00,
2013-03-27 02:04:00,25.0,17.9,30.35,SSW,195,0.0,0.0,74,0.00,,FEW043,0.00,VWS V14.01,2013-03-27 07:04:00,
2013-03-27 02:07:00,25.0,17.9,30.35,SSW,195,0.0,0.0,74,0.00,,FEW043,0.00,VWS V14.01,2013-03-27 07:07:00,
2013-03-27 02:09:00,25.0,17.9,30.35,SSW,195,0.0,0.0,74,0.00,,FEW043,0.00,VWS V14.01,2013-03-27 07:09:00,
2013-03-27 02:11:00,24.8,17.7,30.35,SSW,195,0.0,0.0,74,0.00,,FEW043,0.00,VWS V14.01,2013-03-27 07:11:00,
2013-03-27 02:12:00,24.8,17.7,30.35,SSW,195,0.0,0.0,74,0.00,,FEW043,0.00,VWS V14.01,2013-03-27 07:12:00,
2013-03-27 02:13:00,24.8,17.7,30.35,SSW,195,0.0,0.0,74,0.00,,FEW043,0.00,VWS V14.01,2013-03-27 07:13:00,
2013-03-27 02:14:00,24.8,17.7,30.35,SSW,195,0.0,0.0,74,0.00,,FEW043,0.00,VWS V14.01,2013-03-27 07:14:00,
2013-03-27 02:16:00,25.0,17.9,30.35,SSW,195,0.0,0.0,74,0.00,,FEW043,0.00,VWS V14.01,2013-03-27 07:16:00,
2013-03-27 02:17:00,25.0,18.5,30.35,SSW,195,0.0,0.0,76,0.00,,FEW043,0.00,VWS V14.01,2013-03-27 07:17:00,
2013-03-27 02:18:00,25.0,18.5,30.35,SSW,195,0.0,0.0,76,0.00,,FEW043,0.00,VWS V14.01,2013-03-27 07:18:00,
2013-03-27 02:20:00,25.0,18.5,30.35,SSW,195,0.0,0.0,76,0.00,,FEW043,0.00,VWS V14.01,2013-03-27 07:20:00,
2013-03-27 02:22:00,25.0,18.5,30.35,SSW,195,0.0,0.0,76,0.00,,FEW043,0.00,VWS V14.01,2013-03-27 07:22:00,
2013-03-27 02:23:00,25.0,18.5,30.35,SSW,195,0.0,0.0,76,0.00,,FEW043,0.00,VWS V14.01,2013-03-27 07:23:00,
2013-03-27 02:25:00,25.0,18.5,30.35,SSW,195,2.7,2.7,76,0.00,,FEW043,0.00,VWS V14.01,2013-03-27 07:25:00,
2013-03-27 02:28:00,25.0,18.5,30.35,SSW,195,0.0,0.0,76,0.00,,FEW043,0.00,VWS V14.01,2013-03-27 07:28:00,
2013-03-27 02:30:00,25.0,18.5,30.35,SSW,195,0.0,0.0,76,0.00,,FEW043,0.00,VWS V14.01,2013-03-27 07:30:00,
2013-03-27 02:33:00,24.8,18.9,30.35,SSW,195,0.0,0.0,78,0.00,,FEW043,0.00,VWS V14.01,2013-03-27 07:33:00,
2013-03-27 02:37:00,25.0,19.1,30.35,SSW,195,0.0,0.0,78,0.00,,FEW043,0.00,VWS V14.01,2013-03-27 07:37:00,
2013-03-27 02:38:00,25.0,19.1,30.35,SSW,195,0.0,0.0,78,0.00,,FEW043,0.00,VWS V14.01,2013-03-27 07:38:00,
2013-03-27 02:39:00,25.0,19.1,30.35,SSW,195,0.0,0.0,78,0.00,,FEW043,0.00,VWS V14.01,2013-03-27 07:39:00,
2013-03-27 02:40:00,25.0,19.1,30.35,SSW,195,0.0,0.0,78,0.00,,FEW043,0.00,VWS V14.01,2013-03-27 07:40:00,
2013-03-27 02:42:00,25.0,19.1,30.35,SSW,195,0.0,0.0,78,0.00,,FEW043,0.00,VWS V14.01,2013-03-27 07:42:00,
2013-03-27 02:43:00,25.0,19.1,30.35,SSW,195,0.0,0.0,78,0.00,,FEW043,0.00,VWS V14.01,2013-03-27 07:43:00,
2013-03-27 02:44:00,25.0,19.1,30.35,SSW,195,0.0,0.0,78,0.00,,FEW043,0.00,VWS V14.01,2013-03-27 07:44:00,
2013-03-27 02:45:00,25.0,19.1,30.35,SSW,195,0.0,0.0,78,0.00,,FEW043,0.00,VWS V14.01,2013-03-27 07:45:00,
2013-03-27 02:48:00,25.0,19.1,30.35,SSW,195,0.0,0.0,78,0.00,,FEW043,0.00,VWS V14.01,2013-03-27 07:48:00,
2013-03-27 02:49:00,25.0,19.1,30.35,SSW,195,0.0,0.0,78,0.00,,FEW043,0.00,VWS V14.01,2013-03-27 07:49:00,
2013-03-27 02:50:00,25.0,19.1,30.35,SSW,195,0.0,0.0,78,0.00,,FEW043,0.00,VWS V14.01,2013-03-27 07:50:00,
2013-03-27 02:52:00,25.0,19.1,30.35,SSW,195,0.0,0.0,78,0.00,,FEW043,0.00,VWS V14.01,2013-03-27 07:52:00,
2013-03-27 02:53:00,25.0,19.1,30.35,SSW,195,3.1,3.1,78,0.00,,FEW043,0.00,VWS V14.01,2013-03-27 07:53:00,
2013-03-27 02:54:00,25.0,19.1,30.35,SSW,195,2.7,2.7,78,0.00,,FEW043,0.00,VWS V14.01,2013-03-27 07:54:00,
2013-03-27 02:56:00,25.0,19.1,30.35,SSW,195,0.0,0.0,78,0.00,,FEW043,0.00,VWS V14.01,2013-03-27 07:56:00,
2013-03-27 02:57:00,24.8,18.9,30.35,SSW,195,0.0,0.0,78,0.00,,FEW043,0.00,VWS V14.01,2013-03-27 07:57:00,
2013-03-27 02:59:00,24.8,18.9,30.35,SSW,195,0.0,0.0,78,0.00,,FEW043,0.00,VWS V14.01,2013-03-27 07:59:00,
2013-03-27 03:01:00,24.8,19.5,30.35,SSW,195,0.0,0.0,80,0.00,,FEW043,0.00,VWS V14.01,2013-03-27 08:01:00,
2013-03-27 03:03:00,24.8,19.5,30.35,SSW,195,0.0,0.0,80,0.00,,FEW043,0.00,VWS V14.01,2013-03-27 08:03:00,
2013-03-27 03:05:00,25.0,19.7,30.35,SSW,195,0.0,0.0,80,0.00,,FEW043,0.00,VWS V14.01,2013-03-27 08:05:00,
2013-03-27 03:06:00,25.0,19.7,30.35,SSW,195,0.0,0.0,80,0.00,,FEW043,0.00,VWS V14.01,2013-03-27 08:06:00,
2013-03-27 03:08:00,25.0,19.7,30.35,SSW,195,0.0,0.0,80,0.00,,FEW043,0.00,VWS V14.01,2013-03-27 08:08:00,
2013-03-27 03:09:00,25.0,19.7,30.35,SSW,195,0.0,0.0,80,0.00,,FEW043,0.00,VWS V14.01,2013-03-27 08:09:00,
2013-03-27 03:10:00,24.8,19.5,30.35,SSW,195,0.0,0.0,80,0.00,,FEW043,0.00,VWS V14.01,2013-03-27 08:10:00,
2013-03-27 03:12:00,24.6,18.8,30.35,SSW,195,0.0,0.0,78,0.00,,FEW043,0.00,VWS V14.01,2013-03-27 08:12:00,
2013-03-27 03:13:00,24.4,18.6,30.35,SSW,195,0.0,0.0,78,0.00,,FEW043,0.00,VWS V14.01,2013-03-27 08:13:00,
2013-03-27 03:14:00,24.3,17.8,30.35,SSW,195,0.0,0.0,76,0.00,,FEW043,0.00,VWS V14.01,2013-03-27 08:14:00,
2013-03-27 03:16:00,23.9,17.5,30.35,SSW,195,0.0,0.0,76,0.00,,FEW043,0.00,VWS V14.01,2013-03-27 08:16:00,
2013-03-27 03:17:00,23.7,17.3,30.35,SSW,195,0.0,0.0,76,0.00,,FEW043,0.00,VWS V14.01,2013-03-27 08:17:00,
2013-03-27 03:19:00,23.2,16.8,30.35,SSW,195,0.0,0.0,76,0.00,,FEW043,0.00,VWS V14.01,2013-03-27 08:19:00,
2013-03-27 03:22:00,22.8,17.0,30.35,SSW,195,0.0,0.0,78,0.00,,FEW043,0.00,VWS V14.01,2013-03-27 08:22:00,
2013-03-27 03:24:00,22.8,17.6,30.35,SSW,195,0.0,0.0,80,0.00,,FEW043,0.00,VWS V14.01,2013-03-27 08:24:00,
2013-03-27 03:25:00,22.8,17.6,30.35,SSW,195,0.0,0.0,80,0.00,,FEW043,0.00,VWS V14.01,2013-03-27 08:25:00,
2013-03-27 03:27:00,23.0,18.3,30.35,SSW,195,0.0,0.0,82,0.00,,FEW043,0.00,VWS V14.01,2013-03-27 08:27:00,
2013-03-27 03:30:00,23.2,18.5,30.35,SSW,195,0.0,0.0,82,0.00,,FEW043,0.00,VWS V14.01,2013-03-27 08:30:00,
2013-03-27 03:32:00,23.4,18.7,30.35,SSW,195,0.0,0.0,82,0.00,,FEW043,0.00,VWS V14.01,2013-03-27 08:32:00,
2013-03-27 03:35:00,23.0,18.3,30.35,SSW,195,3.6,3.6,82,0.00,,FEW043,0.00,VWS V14.01,2013-03-27 08:35:00,
2013-03-27 03:36:00,23.0,18.3,30.35,SSW,195,3.1,3.6,82,0.00,,FEW043,0.00,VWS V14.01,2013-03-27 08:36:00,
2013-03-27 03:38:00,22.8,18.2,30.35,SSW,195,4.0,4.0,82,0.00,,FEW043,0.00,VWS V14.01,2013-03-27 08:38:00,
2013-03-27 03:41:00,22.8,18.7,30.32,SSW,195,3.1,3.6,84,0.00,,FEW043,0.00,VWS V14.01,2013-03-27 08:41:00,
2013-03-27 03:43:00,23.0,19.5,30.32,SSW,195,2.7,3.1,86,0.00,,FEW043,0.00,VWS V14.01,2013-03-27 08:43:00,
2013-03-27 03:44:00,23.2,19.1,30.32,SSW,195,0.0,2.7,84,0.00,,FEW043,0.00,VWS V14.01,2013-03-27 08:44:00,
2013-03-27 03:46:00,23.4,19.2,30.32,SSW,195,0.0,0.0,84,0.00,,FEW043,0.00,VWS V14.01,2013-03-27 08:46:00,
2013-03-27 03:48:00,23.5,19.4,30.32,SSW,195,0.0,0.0,84,0.00,,FEW043,0.00,VWS V14.01,2013-03-27 08:48:00,
2013-03-27 03:50:00,23.5,20.0,30.32,SSW,195,0.0,0.0,86,0.00,,FEW043,0.00,VWS V14.01,2013-03-27 08:50:00,
2013-03-27 03:51:00,23.7,20.1,30.32,SSW,195,0.0,0.0,86,0.00,,FEW043,0.00,VWS V14.01,2013-03-27 08:51:00,
2013-03-27 03:53:00,23.9,20.3,30.32,SSW,195,0.0,0.0,86,0.00,,FEW043,0.00,VWS V14.01,2013-03-27 08:53:00,
2013-03-27 03:55:00,24.1,20.5,30.32,SSW,195,0.0,0.0,86,0.00,,FEW043,0.00,VWS V14.01,2013-03-27 08:55:00,
2013-03-27 03:56:00,24.3,20.7,30.32,SSW,195,0.0,0.0,86,0.00,,FEW043,0.00,VWS V14.01,2013-03-27 08:56:00,
2013-03-27 03:59:00,24.4,20.9,30.32,SSW,195,0.0,0.0,86,0.00,,FEW043,0.00,VWS V14.01,2013-03-27 08:59:00,
2013-03-27 04:00:00,24.4,20.9,30.32,SSW,195,0.0,0.0,86,0.00,,FEW043,0.00,VWS V14.01,2013-03-27 09:00:00,
2013-03-27 04:01:00,24.3,20.7,30.32,SSW,195,0.0,0.0,86,0.00,,FEW043,0.00,VWS V14.01,2013-03-27 09:01:00,
2013-03-27 04:04:00,24.3,20.7,30.32,SSW,195,0.0,0.0,86,0.00,,FEW043,0.00,VWS V14.01,2013-03-27 09:04:00,
2013-03-27 04:06:00,24.3,20.7,30.32,SSW,195,0.0,0.0,86,0.00,,FEW043,0.00,VWS V14.01,2013-03-27 09:06:00,
2013-03-27 04:07:00,24.3,20.7,30.32,SSW,195,0.0,0.0,86,0.00,,FEW043,0.00,VWS V14.01,2013-03-27 09:07:00,
2013-03-27 04:09:00,24.3,20.7,30.35,SSW,195,0.0,0.0,86,0.00,,FEW043,0.00,VWS V14.01,2013-03-27 09:09:00,
2013-03-27 04:10:00,24.3,20.7,30.35,SSW,195,0.0,0.0,86,0.00,,FEW043,0.00,VWS V14.01,2013-03-27 09:10:00,
2013-03-27 04:11:00,24.3,20.7,30.35,SSW,195,0.0,0.0,86,0.00,,FEW043,0.00,VWS V14.01,2013-03-27 09:11:00,
2013-03-27 04:12:00,24.4,20.9,30.35,SSW,195,0.0,0.0,86,0.00,,FEW043,0.00,VWS V14.01,2013-03-27 09:12:00,
2013-03-27 04:14:00,24.3,20.1,30.35,SSW,195,0.0,0.0,84,0.00,,FEW043,0.00,VWS V14.01,2013-03-27 09:14:00,
2013-03-27 04:15:00,24.3,20.1,30.35,SSW,195,0.0,0.0,84,0.00,,FEW043,0.00,VWS V14.01,2013-03-27 09:15:00,
2013-03-27 04:16:00,24.3,20.1,30.35,SSW,195,0.0,0.0,84,0.00,,FEW043,0.00,VWS V14.01,2013-03-27 09:16:00,
2013-03-27 04:18:00,24.3,20.1,30.35,SSW,195,0.0,0.0,84,0.00,,FEW043,0.00,VWS V14.01,2013-03-27 09:18:00,
2013-03-27 04:20:00,24.1,20.0,30.35,SSW,195,0.0,0.0,84,0.00,,FEW043,0.00,VWS V14.01,2013-03-27 09:20:00,
2013-03-27 04:21:00,24.1,20.0,30.35,SSW,195,0.0,0.0,84,0.00,,FEW043,0.00,VWS V14.01,2013-03-27 09:21:00,
2013-03-27 04:23:00,23.9,19.8,30.35,SSW,195,0.0,0.0,84,0.00,,FEW043,0.00,VWS V14.01,2013-03-27 09:23:00,
2013-03-27 04:25:00,23.9,19.8,30.35,SSW,195,0.0,0.0,84,0.00,,FEW043,0.00,VWS V14.01,2013-03-27 09:25:00,
2013-03-27 04:27:00,23.9,20.3,30.35,SSW,195,0.0,0.0,86,0.00,,FEW043,0.00,VWS V14.01,2013-03-27 09:27:00,
2013-03-27 04:28:00,23.9,20.3,30.35,SSW,195,0.0,0.0,86,0.00,,FEW043,0.00,VWS V14.01,2013-03-27 09:28:00,
2013-03-27 04:29:00,23.9,20.3,30.35,SSW,195,0.0,0.0,86,0.00,,FEW043,0.00,VWS V14.01,2013-03-27 09:29:00,
2013-03-27 04:30:00,23.9,20.3,30.35,SSW,195,0.0,0.0,86,0.00,,FEW043,0.00,VWS V14.01,2013-03-27 09:30:00,
2013-03-27 04:33:00,23.9,19.8,30.35,SSW,195,0.0,0.0,84,0.00,,FEW043,0.00,VWS V14.01,2013-03-27 09:33:00,
2013-03-27 04:34:00,23.9,19.8,30.35,SSW,195,0.0,0.0,84,0.00,,FEW043,0.00,VWS V14.01,2013-03-27 09:34:00,
2013-03-27 04:35:00,23.9,19.8,30.35,SSW,195,0.0,0.0,84,0.00,,FEW043,0.00,VWS V14.01,2013-03-27 09:35:00,
2013-03-27 04:36:00,23.9,19.8,30.35,SSW,195,0.0,0.0,84,0.00,,FEW043,0.00,VWS V14.01,2013-03-27 09:36:00,
2013-03-27 04:38:00,23.9,19.8,30.32,SSW,195,0.0,0.0,84,0.00,,FEW043,0.00,VWS V14.01,2013-03-27 09:38:00,
2013-03-27 04:40:00,23.9,20.3,30.32,SSW,195,0.0,0.0,86,0.00,,FEW043,0.00,VWS V14.01,2013-03-27 09:40:00,
2013-03-27 04:42:00,24.1,20.5,30.32,SSW,195,0.0,0.0,86,0.00,,FEW043,0.00,VWS V14.01,2013-03-27 09:42:00,
2013-03-27 04:43:00,24.1,20.5,30.32,SSW,195,0.0,0.0,86,0.00,,FEW043,0.00,VWS V14.01,2013-03-27 09:43:00,
2013-03-27 04:45:00,24.1,20.5,30.32,SSW,195,0.0,0.0,86,0.00,,FEW043,0.00,VWS V14.01,2013-03-27 09:45:00,
2013-03-27 04:46:00,24.3,20.7,30.32,SSW,195,0.0,0.0,86,0.00,,FEW043,0.00,VWS V14.01,2013-03-27 09:46:00,
2013-03-27 04:47:00,24.3,20.7,30.32,SSW,195,0.0,0.0,86,0.00,,FEW043,0.00,VWS V14.01,2013-03-27 09:47:00,
2013-03-27 04:49:00,24.3,20.7,30.32,SSW,195,0.0,0.0,86,0.00,,FEW043,0.00,VWS V14.01,2013-03-27 09:49:00,
2013-03-27 04:51:00,24.4,20.9,30.32,SSW,195,0.0,0.0,86,0.00,,FEW043,0.00,VWS V14.01,2013-03-27 09:51:00,
2013-03-27 04:52:00,24.4,20.9,30.32,SSW,195,0.0,0.0,86,0.00,,FEW043,0.00,VWS V14.01,2013-03-27 09:52:00,
2013-03-27 04:54:00,24.4,20.9,30.35,SSW,195,0.0,0.0,86,0.00,,FEW043,0.00,VWS V14.01,2013-03-27 09:54:00,
2013-03-27 04:57:00,24.6,21.0,30.35,SSW,195,0.0,0.0,86,0.00,,FEW043,0.00,VWS V14.01,2013-03-27 09:57:00,
2013-03-27 04:58:00,24.6,21.0,30.35,SSW,195,0.0,0.0,86,0.00,,FEW043,0.00,VWS V14.01,2013-03-27 09:58:00,
2013-03-27 05:00:00,24.6,21.0,30.35,SSW,195,0.0,0.0,86,0.00,,FEW043,0.00,VWS V14.01,2013-03-27 10:00:00,
2013-03-27 05:02:00,24.6,20.5,30.35,SSW,195,0.0,0.0,84,0.00,,FEW043,0.00,VWS V14.01,2013-03-27 10:02:00,
2013-03-27 05:03:00,24.4,20.3,30.35,SSW,195,0.0,0.0,84,0.00,,FEW043,0.00,VWS V14.01,2013-03-27 10:03:00,
2013-03-27 05:05:00,24.4,20.3,30.35,SSW,195,2.7,3.1,84,0.00,,FEW043,0.00,VWS V14.01,2013-03-27 10:05:00,
2013-03-27 05:07:00,24.4,20.3,30.35,SSW,195,2.2,2.7,84,0.00,,FEW043,0.00,VWS V14.01,2013-03-27 10:07:00,
2013-03-27 05:08:00,24.3,20.1,30.35,SSW,195,2.2,2.7,84,0.00,,FEW043,0.00,VWS V14.01,2013-03-27 10:08:00,
2013-03-27 05:11:00,24.3,20.1,30.35,SSW,195,0.0,0.0,84,0.00,,FEW043,0.00,VWS V14.01,2013-03-27 10:11:00,
2013-03-27 05:13:00,24.3,20.7,30.35,SSW,195,0.0,0.0,86,0.00,,FEW043,0.00,VWS V14.01,2013-03-27 10:13:00,
2013-03-27 05:17:00,24.4,20.9,30.35,SSW,195,0.0,0.0,86,0.00,,FEW043,0.00,VWS V14.01,2013-03-27 10:17:00,
2013-03-27 05:18:00,24.4,20.9,30.35,SSW,195,0.0,0.0,86,0.00,,FEW043,0.00,VWS V14.01,2013-03-27 10:18:00,
2013-03-27 05:19:00,24.6,21.0,30.35,SSW,195,0.0,0.0,86,0.00,,FEW043,0.00,VWS V14.01,2013-03-27 10:19:00,
2013-03-27 05:22:00,24.6,21.0,30.35,SSW,195,0.0,0.0,86,0.00,,FEW043,0.00,VWS V14.01,2013-03-27 10:22:00,
2013-03-27 05:23:00,24.6,21.0,30.35,SSW,195,0.0,0.0,86,0.00,,FEW043,0.00,VWS V14.01,2013-03-27 10:23:00,
2013-03-27 05:24:00,24.6,21.0,30.35,SSW,195,0.0,0.0,86,0.00,,FEW043,0.00,VWS V14.01,2013-03-27 10:24:00,
2013-03-27 05:27:00,24.4,20.9,30.35,SSW,195,0.0,0.0,86,0.00,,FEW043,0.00,VWS V14.01,2013-03-27 10:27:00,
2013-03-27 05:29:00,24.4,20.9,30.35,SSW,195,0.0,0.0,86,0.00,,FEW043,0.00,VWS V14.01,2013-03-27 10:29:00,
2013-03-27 05:30:00,24.6,21.0,30.35,SSW,195,0.0,0.0,86,0.00,,FEW043,0.00,VWS V14.01,2013-03-27 10:30:00,
2013-03-27 05:32:00,24.6,21.0,30.35,SSW,195,0.0,0.0,86,0.00,,FEW043,0.00,VWS V14.01,2013-03-27 10:32:00,
2013-03-27 05:34:00,24.6,21.0,30.35,SSW,195,0.0,0.0,86,0.00,,FEW043,0.00,VWS V14.01,2013-03-27 10:34:00,
2013-03-27 05:36:00,24.4,20.9,30.35,SSW,195,0.0,0.0,86,0.00,,FEW043,0.00,VWS V14.01,2013-03-27 10:36:00,
2013-03-27 05:38:00,24.4,20.9,30.35,SSW,195,0.0,0.0,86,0.00,,FEW043,0.00,VWS V14.01,2013-03-27 10:38:00,
2013-03-27 05:39:00,24.4,20.9,30.35,SSW,195,0.0,0.0,86,0.00,,FEW043,0.00,VWS V14.01,2013-03-27 10:39:00,
2013-03-27 05:40:00,24.4,20.9,30.35,SSW,195,0.0,0.0,86,0.00,,FEW043,0.00,VWS V14.01,2013-03-27 10:40:00,
2013-03-27 05:42:00,24.3,20.7,30.35,SSW,195,0.0,0.0,86,0.00,,FEW043,0.00,VWS V14.01,2013-03-27 10:42:00,
2013-03-27 05:43:00,24.3,20.7,30.35,SSW,195,3.1,3.1,86,0.00,,FEW043,0.00,VWS V14.01,2013-03-27 10:43:00,
2013-03-27 05:45:00,24.3,20.7,30.35,SSW,195,3.1,3.1,86,0.00,,FEW043,0.00,VWS V14.01,2013-03-27 10:45:00,
2013-03-27 05:47:00,24.4,20.9,30.35,SSW,193,3.6,3.6,86,0.00,,FEW043,0.00,VWS V14.01,2013-03-27 10:47:00,
2013-03-27 05:49:00,24.4,20.9,30.35,South,191,2.7,4.0,86,0.00,,FEW043,0.00,VWS V14.01,2013-03-27 10:49:00,
2013-03-27 05:50:00,24.4,20.9,30.35,South,191,3.1,3.1,86,0.00,,FEW043,0.00,VWS V14.01,2013-03-27 10:50:00,
2013-03-27 05:51:00,24.4,20.9,30.35,South,191,2.7,3.1,86,0.00,,FEW043,0.00,VWS V14.01,2013-03-27 10:51:00,
2013-03-27 05:52:00,24.4,20.9,30.35,South,191,2.7,3.1,86,0.00,,FEW043,0.00,VWS V14.01,2013-03-27 10:52:00,
2013-03-27 05:55:00,24.4,20.9,30.35,South,191,3.1,3.1,86,0.00,,FEW043,0.00,VWS V14.01,2013-03-27 10:55:00,
2013-03-27 05:57:00,24.4,20.9,30.35,South,191,2.7,2.7,86,0.00,,FEW043,0.00,VWS V14.01,2013-03-27 10:57:00,
2013-03-27 06:00:00,24.4,20.9,30.35,South,191,0.0,0.0,86,0.00,,FEW043,0.00,VWS V14.01,2013-03-27 11:00:00,
2013-03-27 06:01:00,24.4,20.9,30.35,South,191,0.0,0.0,86,0.00,,FEW043,0.00,VWS V14.01,2013-03-27 11:01:00,
2013-03-27 06:02:00,24.4,20.9,30.35,South,191,0.0,0.0,86,0.00,,FEW043,0.00,VWS V14.01,2013-03-27 11:02:00,
2013-03-27 06:05:00,24.4,20.9,30.35,South,191,0.0,0.0,86,0.00,,FEW043,0.00,VWS V14.01,2013-03-27 11:05:00,
2013-03-27 06:06:00,24.6,21.0,30.35,South,191,0.0,0.0,86,0.00,,FEW043,0.00,VWS V14.01,2013-03-27 11:06:00,
2013-03-27 06:07:00,24.6,21.0,30.35,South,191,0.0,0.0,86,0.00,,FEW043,0.00,VWS V14.01,2013-03-27 11:07:00,
2013-03-27 06:09:00,24.6,21.0,30.35,South,191,0.0,0.0,86,0.00,,FEW043,0.00,VWS V14.01,2013-03-27 11:09:00,
2013-03-27 06:10:00,24.6,21.0,30.35,South,191,0.0,0.0,86,0.00,,FEW043,0.00,VWS V14.01,2013-03-27 11:10:00,
2013-03-27 06:12:00,24.6,21.0,30.35,South,191,0.0,0.0,86,0.00,,FEW043,0.00,VWS V14.01,2013-03-27 11:12:00,
2013-03-27 06:13:00,24.4,20.9,30.35,South,191,0.0,0.0,86,0.00,,FEW043,0.00,VWS V14.01,2013-03-27 11:13:00,
2013-03-27 06:14:00,24.4,20.9,30.35,South,191,0.0,0.0,86,0.00,,FEW043,0.00,VWS V14.01,2013-03-27 11:14:00,
2013-03-27 06:16:00,24.3,20.7,30.35,South,191,0.0,0.0,86,0.00,,FEW043,0.00,VWS V14.01,2013-03-27 11:16:00,
2013-03-27 06:17:00,24.3,20.7,30.35,South,191,0.0,0.0,86,0.00,,FEW043,0.00,VWS V14.01,2013-03-27 11:17:00,
2013-03-27 06:19:00,23.7,20.1,30.35,South,191,0.0,0.0,86,0.00,,FEW043,0.00,VWS V14.01,2013-03-27 11:19:00,
2013-03-27 06:22:00,23.4,19.8,30.35,South,191,0.0,0.0,86,0.00,,FEW043,0.00,VWS V14.01,2013-03-27 11:22:00,
2013-03-27 06:24:00,23.2,19.6,30.35,South,191,0.0,0.0,86,0.00,,FEW043,0.00,VWS V14.01,2013-03-27 11:24:00,
2013-03-27 06:27:00,23.2,19.6,30.35,South,191,0.0,0.0,86,0.00,,FEW043,0.00,VWS V14.01,2013-03-27 11:27:00,
2013-03-27 06:28:00,23.2,19.6,30.35,South,191,0.0,0.0,86,0.00,,FEW043,0.00,VWS V14.01,2013-03-27 11:28:00,
2013-03-27 06:29:00,23.0,19.5,30.35,South,191,0.0,0.0,86,0.00,,FEW043,0.00,VWS V14.01,2013-03-27 11:29:00,
2013-03-27 06:33:00,23.2,19.6,30.35,South,191,2.2,2.2,86,0.00,,FEW043,0.00,VWS V14.01,2013-03-27 11:33:00,
2013-03-27 06:35:00,23.4,20.3,30.35,South,191,2.7,2.7,88,0.00,,FEW043,0.00,VWS V14.01,2013-03-27 11:35:00,
2013-03-27 06:36:00,23.4,20.3,30.35,South,191,2.7,2.7,88,0.00,,FEW043,0.00,VWS V14.01,2013-03-27 11:36:00,
2013-03-27 06:38:00,23.5,20.5,30.35,South,191,2.2,2.2,88,0.00,,FEW043,0.00,VWS V14.01,2013-03-27 11:38:00,
2013-03-27 06:39:00,23.4,19.8,30.35,South,191,2.7,2.7,86,0.00,,FEW043,0.00,VWS V14.01,2013-03-27 11:39:00,
2013-03-27 06:40:00,23.4,19.8,30.35,South,191,3.1,3.1,86,0.00,,FEW043,0.00,VWS V14.01,2013-03-27 11:40:00,
2013-03-27 06:41:00,23.4,19.8,30.35,South,191,2.7,2.7,86,0.00,,FEW043,0.00,VWS V14.01,2013-03-27 11:41:00,
2013-03-27 06:43:00,23.4,20.3,30.35,South,191,3.6,3.6,88,0.00,,FEW043,0.00,VWS V14.01,2013-03-27 11:43:00,
2013-03-27 06:44:00,23.4,20.3,30.35,South,191,3.6,3.6,88,0.00,,FEW043,0.00,VWS V14.01,2013-03-27 11:44:00,
2013-03-27 06:45:00,23.4,20.3,30.35,South,191,4.0,4.0,88,0.00,,FEW043,0.00,VWS V14.01,2013-03-27 11:45:00,
2013-03-27 06:46:00,23.4,20.3,30.35,South,191,3.6,3.6,88,0.00,,FEW043,0.00,VWS V14.01,2013-03-27 11:46:00,
2013-03-27 06:49:00,23.2,20.2,30.35,South,191,3.1,3.6,88,0.00,,FEW043,0.00,VWS V14.01,2013-03-27 11:49:00,
2013-03-27 06:50:00,23.2,20.2,30.35,South,190,2.7,3.6,88,0.00,,FEW043,0.00,VWS V14.01,2013-03-27 11:50:00,
2013-03-27 06:51:00,23.0,20.0,30.35,South,190,3.1,3.6,88,0.00,,FEW043,0.00,VWS V14.01,2013-03-27 11:51:00,
2013-03-27 06:54:00,23.2,20.2,30.35,South,191,2.7,2.7,88,0.00,,FEW043,0.00,VWS V14.01,2013-03-27 11:54:00,
2013-03-27 06:55:00,23.2,20.2,30.35,South,190,3.1,3.1,88,0.00,,FEW043,0.00,VWS V14.01,2013-03-27 11:55:00,
2013-03-27 06:57:00,23.5,21.0,30.35,South,191,3.6,3.6,90,0.00,,FEW043,0.00,VWS V14.01,2013-03-27 11:57:00,
2013-03-27 06:59:00,23.7,21.2,30.35,South,190,3.6,3.6,90,0.00,,FEW043,0.00,VWS V14.01,2013-03-27 11:59:00,
2013-03-27 07:00:00,23.7,21.2,30.35,South,190,3.6,3.6,90,0.00,,FEW043,0.00,VWS V14.01,2013-03-27 12:00:00,
2013-03-27 07:01:00,23.7,21.2,30.35,South,190,3.6,3.6,90,0.00,,FEW043,0.00,VWS V14.01,2013-03-27 12:01:00,
2013-03-27 07:02:00,23.7,21.2,30.35,South,190,3.1,3.6,90,0.00,,FEW043,0.00,VWS V14.01,2013-03-27 12:02:00,
2013-03-27 07:04:00,23.7,21.2,30.35,South,190,2.2,2.7,90,0.00,,FEW043,0.00,VWS V14.01,2013-03-27 12:04:00,
2013-03-27 07:05:00,23.7,21.2,30.35,South,190,0.0,2.2,90,0.00,,FEW043,0.00,VWS V14.01,2013-03-27 12:05:00,
2013-03-27 07:06:00,23.7,21.2,30.35,South,190,2.7,2.7,90,0.00,,FEW043,0.00,VWS V14.01,2013-03-27 12:06:00,
2013-03-27 07:08:00,23.7,21.2,30.35,South,190,3.1,3.1,90,0.00,,FEW043,0.00,VWS V14.01,2013-03-27 12:08:00,
2013-03-27 07:10:00,23.9,21.4,30.35,South,190,3.1,3.1,90,0.00,,FEW043,0.00,VWS V14.01,2013-03-27 12:10:00,
2013-03-27 07:11:00,23.9,21.4,30.35,South,190,3.1,3.6,90,0.00,,FEW043,0.00,VWS V14.01,2013-03-27 12:11:00,
2013-03-27 07:13:00,24.1,21.6,30.35,South,190,2.2,2.7,90,0.00,,FEW043,0.00,VWS V14.01,2013-03-27 12:13:00,
2013-03-27 07:15:00,24.1,21.6,30.35,South,190,0.0,0.0,90,0.00,,FEW043,0.00,VWS V14.01,2013-03-27 12:15:00,
2013-03-27 07:16:00,23.9,21.4,30.35,South,190,0.0,0.0,90,0.00,,FEW043,0.00,VWS V14.01,2013-03-27 12:16:00,
2013-03-27 07:18:00,23.9,21.4,30.35,South,190,0.0,0.0,90,0.00,,FEW043,0.00,VWS V14.01,2013-03-27 12:18:00,
2013-03-27 07:20:00,23.9,21.4,30.35,South,190,0.0,0.0,90,0.00,,FEW043,0.00,VWS V14.01,2013-03-27 12:20:00,
2013-03-27 07:22:00,23.9,21.4,30.35,South,190,3.1,3.6,90,0.00,,FEW043,0.00,VWS V14.01,2013-03-27 12:22:00,
2013-03-27 07:23:00,23.9,21.4,30.35,South,190,2.7,3.6,90,0.00,,FEW043,0.00,VWS V14.01,2013-03-27 12:23:00,
2013-03-27 07:26:00,23.9,21.4,30.35,South,190,2.7,2.7,90,0.00,,FEW043,0.00,VWS V14.01,2013-03-27 12:26:00,
2013-03-27 07:28:00,23.9,21.4,30.35,South,190,0.0,2.7,90,0.00,,FEW043,0.00,VWS V14.01,2013-03-27 12:28:00,
2013-03-27 07:31:00,23.7,21.2,30.35,South,190,0.0,0.0,90,0.00,,FEW043,0.00,VWS V14.01,2013-03-27 12:31:00,
2013-03-27 07:33:00,23.5,20.5,30.35,South,190,0.0,0.0,88,0.00,,FEW043,0.00,VWS V14.01,2013-03-27 12:33:00,
2013-03-27 07:37:00,23.2,20.2,30.35,South,190,0.0,0.0,88,0.00,,FEW043,0.00,VWS V14.01,2013-03-27 12:37:00,
2013-03-27 07:38:00,23.0,20.5,30.35,South,190,0.0,0.0,90,0.00,,FEW043,0.00,VWS V14.01,2013-03-27 12:38:00,
2013-03-27 07:42:00,23.2,20.7,30.35,South,190,0.0,0.0,90,0.00,,FEW043,0.00,VWS V14.01,2013-03-27 12:42:00,
2013-03-27 07:43:00,23.2,20.7,30.35,South,190,0.0,0.0,90,0.00,,FEW043,0.00,VWS V14.01,2013-03-27 12:43:00,
2013-03-27 07:47:00,23.4,20.9,30.35,South,190,0.0,0.0,90,0.00,,FEW043,0.00,VWS V14.01,2013-03-27 12:47:00,
2013-03-27 07:48:00,23.4,20.9,30.35,South,190,0.0,0.0,90,0.00,,FEW043,0.00,VWS V14.01,2013-03-27 12:48:00,
2013-03-27 07:52:00,23.5,21.0,30.35,South,190,0.0,0.0,90,0.00,,FEW043,0.00,VWS V14.01,2013-03-27 12:52:00,
2013-03-27 07:53:00,23.5,21.0,30.35,South,190,0.0,0.0,90,0.00,,FEW043,0.00,VWS V14.01,2013-03-27 12:53:00,
2013-03-27 07:55:00,23.9,21.9,30.35,South,190,0.0,0.0,92,0.00,,FEW043,0.00,VWS V14.01,2013-03-27 12:55:00,
2013-03-27 07:58:00,24.4,22.5,30.35,South,190,3.1,3.1,92,0.00,,FEW043,0.00,VWS V14.01,2013-03-27 12:58:00,
2013-03-27 07:59:00,24.4,22.5,30.35,South,190,3.1,3.6,92,0.00,,FEW043,0.00,VWS V14.01,2013-03-27 12:59:00,
2013-03-27 08:00:00,24.6,22.6,30.35,South,190,2.7,2.7,92,0.00,,FEW043,0.00,VWS V14.01,2013-03-27 13:00:00,
2013-03-27 08:03:00,25.2,23.2,30.35,South,190,3.1,3.1,92,0.00,,FEW043,0.00,VWS V14.01,2013-03-27 13:03:00,
2013-03-27 08:04:00,25.2,23.2,30.35,South,190,2.7,3.1,92,0.00,,FEW043,0.00,VWS V14.01,2013-03-27 13:04:00,
2013-03-27 08:05:00,25.2,23.2,30.35,South,190,2.7,3.1,92,0.00,,FEW043,0.00,VWS V14.01,2013-03-27 13:05:00,
2013-03-27 08:09:00,25.5,23.5,30.37,South,190,2.7,2.7,92,0.00,,FEW043,0.00,VWS V14.01,2013-03-27 13:09:00,
2013-03-27 08:10:00,25.5,23.5,30.37,South,190,2.7,2.7,92,0.00,,FEW043,0.00,VWS V14.01,2013-03-27 13:10:00,
2013-03-27 08:15:00,26.1,24.1,30.37,South,190,2.2,2.2,92,0.00,,FEW043,0.00,VWS V14.01,2013-03-27 13:15:00,
2013-03-27 08:16:00,26.1,24.1,30.37,South,190,0.0,0.0,92,0.00,,FEW043,0.00,VWS V14.01,2013-03-27 13:16:00,
2013-03-27 08:20:00,26.6,24.6,30.37,South,190,0.0,0.0,92,0.00,,FEW043,0.00,VWS V14.01,2013-03-27 13:20:00,
2013-03-27 08:21:00,26.6,24.6,30.37,South,190,0.0,0.0,92,0.00,,FEW043,0.00,VWS V14.01,2013-03-27 13:21:00,
2013-03-27 08:25:00,27.0,24.4,30.37,South,190,0.0,0.0,90,0.00,,FEW043,0.00,VWS V14.01,2013-03-27 13:25:00,
2013-03-27 08:26:00,27.1,24.6,30.37,South,190,0.0,0.0,90,0.00,,FEW043,0.00,VWS V14.01,2013-03-27 13:26:00,
2013-03-27 08:27:00,27.1,24.6,30.37,South,190,0.0,0.0,90,0.00,,FEW043,0.00,VWS V14.01,2013-03-27 13:27:00,
2013-03-27 08:28:00,27.5,25.0,30.37,South,190,0.0,0.0,90,0.00,,FEW043,0.00,VWS V14.01,2013-03-27 13:28:00,
2013-03-27 08:30:00,27.7,25.1,30.37,South,190,0.0,0.0,90,0.00,,FEW043,0.00,VWS V14.01,2013-03-27 13:30:00,
2013-03-27 08:31:00,27.9,25.3,30.37,South,190,0.0,0.0,90,0.00,,FEW043,0.00,VWS V14.01,2013-03-27 13:31:00,
2013-03-27 08:32:00,27.9,25.3,30.37,South,190,0.0,0.0,90,0.00,,FEW043,0.00,VWS V14.01,2013-03-27 13:32:00,
2013-03-27 08:33:00,28.0,25.0,30.37,South,190,0.0,0.0,88,0.00,,FEW043,0.00,VWS V14.01,2013-03-27 13:33:00,
2013-03-27 08:35:00,28.2,25.1,30.37,South,190,0.0,0.0,88,0.00,,FEW043,0.00,VWS V14.01,2013-03-27 13:35:00,
2013-03-27 08:36:00,28.4,25.3,30.37,South,190,0.0,0.0,88,0.00,,FEW043,0.00,VWS V14.01,2013-03-27 13:36:00,
2013-03-27 08:37:00,28.6,25.5,30.37,South,190,0.0,0.0,88,0.00,,FEW043,0.00,VWS V14.01,2013-03-27 13:37:00,
2013-03-27 08:39:00,28.6,25.5,30.37,South,190,0.0,0.0,88,0.00,,FEW043,0.00,VWS V14.01,2013-03-27 13:39:00,
2013-03-27 08:41:00,28.9,25.3,30.37,South,190,0.0,0.0,86,0.00,,FEW043,0.00,VWS V14.01,2013-03-27 13:41:00,
2013-03-27 08:42:00,29.1,25.5,30.37,South,190,0.0,0.0,86,0.00,,FEW043,0.00,VWS V14.01,2013-03-27 13:42:00,
2013-03-27 08:43:00,29.1,25.5,30.37,South,190,0.0,0.0,86,0.00,,FEW043,0.00,VWS V14.01,2013-03-27 13:43:00,
2013-03-27 08:44:00,29.5,25.8,30.37,South,190,0.0,0.0,86,0.00,,FEW043,0.00,VWS V14.01,2013-03-27 13:44:00,
2013-03-27 08:46:00,29.7,26.0,30.37,South,190,0.0,0.0,86,0.00,,FEW043,0.00,VWS V14.01,2013-03-27 13:46:00,
2013-03-27 08:48:00,30.0,26.4,30.37,South,190,0.0,0.0,86,0.00,,FEW043,0.00,VWS V14.01,2013-03-27 13:48:00,
2013-03-27 08:49:00,30.2,26.5,30.37,South,190,0.0,0.0,86,0.00,,FEW043,0.00,VWS V14.01,2013-03-27 13:49:00,
2013-03-27 08:51:00,30.6,26.3,30.37,South,190,0.0,0.0,84,0.00,,FEW043,0.00,VWS V14.01,2013-03-27 13:51:00,
2013-03-27 08:53:00,30.7,26.5,30.37,South,190,0.0,0.0,84,0.00,,FEW043,0.00,VWS V14.01,2013-03-27 13:53:00,
2013-03-27 08:54:00,31.1,26.8,30.37,South,190,0.0,0.0,84,0.00,,FEW043,0.00,VWS V14.01,2013-03-27 13:54:00,
2013-03-27 08:55:00,31.1,26.3,30.37,South,190,0.0,0.0,82,0.00,,FEW043,0.00,VWS V14.01,2013-03-27 13:55:00,
2013-03-27 08:56:00,31.5,26.6,30.37,South,190,0.0,0.0,82,0.00,,FEW043,0.00,VWS V14.01,2013-03-27 13:56:00,
2013-03-27 08:58:00,31.8,27.0,30.37,South,190,0.0,0.0,82,0.00,,FEW043,0.00,VWS V14.01,2013-03-27 13:58:00,
2013-03-27 08:59:00,31.8,27.0,30.37,South,190,0.0,0.0,82,0.00,,FEW043,0.00,VWS V14.01,2013-03-27 13:59:00,
2013-03-27 09:01:00,32.2,27.3,30.37,South,190,0.0,0.0,82,0.00,,FEW043,0.00,VWS V14.01,2013-03-27 14:01:00,
2013-03-27 09:03:00,32.5,27.1,30.37,South,190,0.0,0.0,80,0.00,,FEW043,0.00,VWS V14.01,2013-03-27 14:03:00,
2013-03-27 09:04:00,32.7,27.2,30.37,South,190,0.0,0.0,80,0.00,,FEW043,0.00,VWS V14.01,2013-03-27 14:04:00,
2013-03-27 09:07:00,32.9,27.4,30.37,South,190,0.0,0.0,80,0.00,,FEW043,0.00,VWS V14.01,2013-03-27 14:07:00,
2013-03-27 09:09:00,33.3,27.8,30.37,South,190,0.0,0.0,80,0.00,,FEW043,0.00,VWS V14.01,2013-03-27 14:09:00,
2013-03-27 09:10:00,33.4,27.9,30.37,South,190,0.0,0.0,80,0.00,,FEW043,0.00,VWS V14.01,2013-03-27 14:10:00,
2013-03-27 09:12:00,33.6,28.1,30.37,South,190,0.0,0.0,80,0.00,,FEW043,0.00,VWS V14.01,2013-03-27 14:12:00,
2013-03-27 09:15:00,34.2,28.6,30.37,South,190,0.0,0.0,80,0.00,,FEW043,0.00,VWS V14.01,2013-03-27 14:15:00,
2013-03-27 09:16:00,34.3,28.8,30.37,South,190,0.0,0.0,80,0.00,,FEW043,0.00,VWS V14.01,2013-03-27 14:16:00,
2013-03-27 09:17:00,34.5,29.0,30.37,South,190,0.0,0.0,80,0.00,,FEW043,0.00,VWS V14.01,2013-03-27 14:17:00,
2013-03-27 09:18:00,34.5,29.0,30.37,South,190,0.0,0.0,80,0.00,,FEW043,0.00,VWS V14.01,2013-03-27 14:18:00,
2013-03-27 09:21:00,35.2,29.7,30.37,South,190,0.0,0.0,80,0.00,,FEW043,0.00,VWS V14.01,2013-03-27 14:21:00,
2013-03-27 09:22:00,35.4,29.9,30.37,South,190,0.0,0.0,80,0.00,,FEW043,0.00,VWS V14.01,2013-03-27 14:22:00,
2013-03-27 09:23:00,35.6,29.4,30.37,South,190,0.0,0.0,78,0.00,,FEW043,0.00,VWS V14.01,2013-03-27 14:23:00,
2013-03-27 09:27:00,36.3,30.1,30.37,South,190,0.0,0.0,78,0.00,,FEW043,0.00,VWS V14.01,2013-03-27 14:27:00,
2013-03-27 09:28:00,36.5,30.3,30.37,South,190,0.0,0.0,78,0.00,,FEW043,0.00,VWS V14.01,2013-03-27 14:28:00,
2013-03-27 09:33:00,37.6,30.1,30.37,South,190,0.0,0.0,74,0.00,,FEW043,0.00,VWS V14.01,2013-03-27 14:33:00,
2013-03-27 09:34:00,37.6,30.1,30.37,South,190,0.0,0.0,74,0.00,,FEW043,0.00,VWS V14.01,2013-03-27 14:34:00,
2013-03-27 09:38:00,38.5,30.2,30.37,South,190,0.0,0.0,72,0.00,,FEW043,0.00,VWS V14.01,2013-03-27 14:38:00,
2013-03-27 09:39:00,38.7,30.4,30.37,South,190,0.0,0.0,72,0.00,,FEW043,0.00,VWS V14.01,2013-03-27 14:39:00,
2013-03-27 09:40:00,38.7,30.4,30.37,South,190,0.0,0.0,72,0.00,,FEW043,0.00,VWS V14.01,2013-03-27 14:40:00,
2013-03-27 09:44:00,39.4,29.7,30.37,South,190,0.0,0.0,68,0.00,,FEW043,0.00,VWS V14.01,2013-03-27 14:44:00,
2013-03-27 09:45:00,39.6,29.1,30.37,South,190,0.0,0.0,66,0.00,,FEW043,0.00,VWS V14.01,2013-03-27 14:45:00,
2013-03-27 09:49:00,40.1,28.9,30.37,South,190,0.0,0.0,64,0.00,,FEW043,0.00,VWS V14.01,2013-03-27 14:49:00,
2013-03-27 09:50:00,40.5,29.3,30.37,South,190,0.0,0.0,64,0.00,,FEW043,0.00,VWS V14.01,2013-03-27 14:50:00,
2013-03-27 09:54:00,41.0,29.0,30.37,South,190,0.0,0.0,62,0.00,,FEW043,0.00,VWS V14.01,2013-03-27 14:54:00,
2013-03-27 09:55:00,41.0,28.2,30.37,South,190,0.0,0.0,60,0.00,,FEW043,0.00,VWS V14.01,2013-03-27 14:55:00,
2013-03-27 09:56:00,41.2,28.4,30.37,South,190,0.0,0.0,60,0.00,,FEW043,0.00,VWS V14.01,2013-03-27 14:56:00,
2013-03-27 10:00:00,41.5,27.9,30.37,South,190,0.0,0.0,58,0.00,,FEW043,0.00,VWS V14.01,2013-03-27 15:00:00,
2013-03-27 10:01:00,41.7,28.0,30.37,South,190,0.0,0.0,58,0.00,,FEW043,0.00,VWS V14.01,2013-03-27 15:01:00,
2013-03-27 10:05:00,42.3,28.5,30.37,South,190,0.0,0.0,58,0.00,,FEW043,0.00,VWS V14.01,2013-03-27 15:05:00,
2013-03-27 10:06:00,42.4,28.7,30.37,South,190,0.0,0.0,58,0.00,,FEW043,0.00,VWS V14.01,2013-03-27 15:06:00,
2013-03-27 10:07:00,42.4,28.7,30.37,South,190,0.0,0.0,58,0.00,,FEW043,0.00,VWS V14.01,2013-03-27 15:07:00,
2013-03-27 10:10:00,43.0,28.4,30.37,South,190,0.0,0.0,56,0.00,,FEW043,0.00,VWS V14.01,2013-03-27 15:10:00,
2013-03-27 10:11:00,43.0,28.4,30.37,South,190,0.0,0.0,56,0.00,,FEW043,0.00,VWS V14.01,2013-03-27 15:11:00,
2013-03-27 10:12:00,43.2,28.5,30.37,South,190,0.0,0.0,56,0.00,,FEW043,0.00,VWS V14.01,2013-03-27 15:12:00,
2013-03-27 10:16:00,43.3,26.0,30.37,South,190,0.0,0.0,50,0.00,,FEW043,0.00,VWS V14.01,2013-03-27 15:16:00,
2013-03-27 10:17:00,43.3,26.0,30.37,South,190,0.0,0.0,50,0.00,,FEW043,0.00,VWS V14.01,2013-03-27 15:17:00,
2013-03-27 10:18:00,43.3,26.0,30.37,South,190,0.0,0.0,50,0.00,,FEW043,0.00,VWS V14.01,2013-03-27 15:18:00,
2013-03-27 10:22:00,43.5,24.1,30.37,SSE,159,3.6,3.6,46,0.00,,FEW043,0.00,VWS V14.01,2013-03-27 15:22:00,
2013-03-27 10:23:00,43.7,24.3,30.37,SSE,159,2.2,2.7,46,0.00,,FEW043,0.00,VWS V14.01,2013-03-27 15:23:00,
2013-03-27 10:27:00,43.7,21.0,30.37,SSE,155,0.0,0.0,40,0.00,,FEW043,0.00,VWS V14.01,2013-03-27 15:27:00,
2013-03-27 10:28:00,43.9,21.1,30.37,SSE,155,0.0,2.7,40,0.00,,FEW043,0.00,VWS V14.01,2013-03-27 15:28:00,
2013-03-27 10:29:00,43.9,21.1,30.37,SSE,154,0.0,2.7,40,0.00,,FEW043,0.00,VWS V14.01,2013-03-27 15:29:00,
2013-03-27 10:33:00,44.1,21.3,30.37,SSE,155,0.0,0.0,40,0.00,,FEW043,0.00,VWS V14.01,2013-03-27 15:33:00,
2013-03-27 10:34:00,44.1,21.3,30.37,SSE,154,0.0,0.0,40,0.00,,FEW043,0.00,VWS V14.01,2013-03-27 15:34:00,
2013-03-27 10:39:00,44.6,21.8,30.37,South,171,0.0,0.0,40,0.00,,FEW043,0.00,VWS V14.01,2013-03-27 15:39:00,
2013-03-27 10:44:00,45.1,22.3,30.37,SW,217,4.0,4.0,40,0.00,,FEW043,0.00,VWS V14.01,2013-03-27 15:44:00,
2013-03-27 10:45:00,45.1,22.3,30.37,SSW,193,4.0,4.0,40,0.00,,FEW043,0.00,VWS V14.01,2013-03-27 15:45:00,
2013-03-27 10:49:00,45.0,18.3,30.37,SW,233,4.0,4.0,34,0.00,,FEW043,0.00,VWS V14.01,2013-03-27 15:49:00,
2013-03-27 10:50:00,45.0,22.1,30.37,SW,233,4.9,4.9,40,0.00,,FEW043,0.00,VWS V14.01,2013-03-27 15:50:00,
2013-03-27 10:54:00,45.0,18.3,30.37,SW,220,0.0,0.0,34,0.00,,FEW043,0.00,VWS V14.01,2013-03-27 15:54:00,
2013-03-27 10:55:00,45.0,18.3,30.37,SW,220,0.0,0.0,34,0.00,,FEW043,0.00,VWS V14.01,2013-03-27 15:55:00,
2013-03-27 10:58:00,45.3,18.6,30.37,SW,231,0.0,0.0,34,0.00,,FEW043,0.00,VWS V14.01,2013-03-27 15:58:00,
2013-03-27 10:59:00,45.3,18.6,30.37,SW,218,4.0,5.4,34,0.00,,FEW043,0.00,VWS V14.01,2013-03-27 15:59:00,
2013-03-27 11:00:00,45.3,18.6,30.37,SW,218,0.0,3.1,34,0.00,,FEW043,0.00,VWS V14.01,2013-03-27 16:00:00,
2013-03-27 11:02:00,45.5,18.8,30.37,SW,218,0.0,0.0,34,0.00,,FEW043,0.00,VWS V14.01,2013-03-27 16:02:00,
2013-03-27 11:03:00,45.7,18.9,30.37,SW,218,0.0,0.0,34,0.00,,FEW043,0.00,VWS V14.01,2013-03-27 16:03:00,
2013-03-27 11:05:00,45.9,19.1,30.37,SW,219,2.2,3.6,34,0.00,,FEW043,0.00,VWS V14.01,2013-03-27 16:05:00,
2013-03-27 11:06:00,45.9,19.1,30.37,SW,219,0.0,2.2,34,0.00,,FEW043,0.00,VWS V14.01,2013-03-27 16:06:00,
2013-03-27 11:08:00,46.2,19.4,30.37,SW,219,0.0,0.0,34,0.00,,FEW043,0.00,VWS V14.01,2013-03-27 16:08:00,
2013-03-27 11:09:00,46.2,19.4,30.37,SW,219,0.0,0.0,34,0.00,,FEW043,0.00,VWS V14.01,2013-03-27 16:09:00,
2013-03-27 11:10:00,46.6,19.7,30.37,SW,219,0.0,0.0,34,0.00,,FEW043,0.00,VWS V14.01,2013-03-27 16:10:00,
2013-03-27 11:12:00,46.6,19.7,30.37,SW,219,0.0,0.0,34,0.00,,FEW043,0.00,VWS V14.01,2013-03-27 16:12:00,
2013-03-27 11:14:00,46.4,19.6,30.37,NW,305,0.0,2.7,34,0.00,,FEW043,0.00,VWS V14.01,2013-03-27 16:14:00,
2013-03-27 11:16:00,46.2,19.4,30.37,WSW,256,0.0,0.0,34,0.00,,FEW043,0.00,VWS V14.01,2013-03-27 16:16:00,
2013-03-27 11:17:00,46.0,19.3,30.37,WSW,256,0.0,0.0,34,0.00,,FEW043,0.00,VWS V14.01,2013-03-27 16:17:00,
2013-03-27 11:19:00,45.9,19.1,30.37,West,272,3.6,3.6,34,0.00,,FEW043,0.00,VWS V14.01,2013-03-27 16:19:00,
2013-03-27 11:20:00,45.9,19.1,30.37,West,272,3.6,3.6,34,0.00,,FEW043,0.00,VWS V14.01,2013-03-27 16:20:00,
2013-03-27 11:22:00,45.3,18.6,30.37,West,260,3.6,3.6,34,0.00,,FEW043,0.00,VWS V14.01,2013-03-27 16:22:00,
2013-03-27 11:23:00,45.3,18.6,30.37,West,260,0.0,3.1,34,0.00,,FEW043,0.00,VWS V14.01,2013-03-27 16:23:00,
2013-03-27 11:24:00,45.3,18.6,30.37,West,260,0.0,0.0,34,0.00,,FEW043,0.00,VWS V14.01,2013-03-27 16:24:00,
2013-03-27 11:26:00,45.7,18.9,30.37,SSW,213,0.0,4.0,34,0.00,,FEW043,0.00,VWS V14.01,2013-03-27 16:26:00,
2013-03-27 11:28:00,45.9,19.1,30.37,SSE,152,4.0,4.9,34,0.00,,FEW043,0.00,VWS V14.01,2013-03-27 16:28:00,
2013-03-27 11:29:00,45.9,19.1,30.37,SSE,152,0.0,4.0,34,0.00,,FEW043,0.00,VWS V14.01,2013-03-27 16:29:00,
2013-03-27 11:31:00,46.2,19.4,30.37,SSE,154,2.7,2.7,34,0.00,,FEW043,0.00,VWS V14.01,2013-03-27 16:31:00,
2013-03-27 11:34:00,46.4,19.6,30.37,South,179,5.8,5.8,34,0.00,,FEW043,0.00,VWS V14.01,2013-03-27 16:34:00,
2013-03-27 11:35:00,46.4,19.6,30.37,SSW,194,7.2,7.2,34,0.00,,FEW043,0.00,VWS V14.01,2013-03-27 16:35:00,
2013-03-27 11:37:00,46.2,19.4,30.37,SW,223,3.6,5.4,34,0.00,,FEW043,0.00,VWS V14.01,2013-03-27 16:37:00,
2013-03-27 11:39:00,45.9,19.1,30.37,South,170,3.1,3.1,34,0.00,,FEW043,0.00,VWS V14.01,2013-03-27 16:39:00,
2013-03-27 11:40:00,45.9,19.1,30.37,SSW,196,5.8,5.8,34,0.00,,FEW043,0.00,VWS V14.01,2013-03-27 16:40:00,
2013-03-27 11:42:00,45.5,18.8,30.37,SW,233,8.3,8.3,34,0.00,,FEW043,0.00,VWS V14.01,2013-03-27 16:42:00,
2013-03-27 11:44:00,45.3,18.6,30.37,WSW,237,5.8,5.8,34,0.00,,FEW043,0.00,VWS V14.01,2013-03-27 16:44:00,
2013-03-27 11:45:00,45.3,18.6,30.37,WSW,246,5.4,5.4,34,0.00,,FEW043,0.00,VWS V14.01,2013-03-27 16:45:00,
2013-03-27 11:46:00,45.1,18.5,30.37,WSW,239,4.0,5.4,34,0.00,,FEW043,0.00,VWS V14.01,2013-03-27 16:46:00,
2013-03-27 11:47:00,45.1,18.5,30.37,WSW,239,5.8,5.8,34,0.00,,FEW043,0.00,VWS V14.01,2013-03-27 16:47:00,
2013-03-27 11:50:00,44.8,18.1,30.37,WSW,241,0.0,0.0,34,0.00,,FEW043,0.00,VWS V14.01,2013-03-27 16:50:00,
2013-03-27 11:52:00,45.0,18.3,30.37,SW,219,4.0,5.4,34,0.00,,FEW043,0.00,VWS V14.01,2013-03-27 16:52:00,
2013-03-27 11:53:00,45.0,18.3,30.37,SW,220,6.3,6.3,34,0.00,,FEW043,0.00,VWS V14.01,2013-03-27 16:53:00,
2013-03-27 11:55:00,45.0,18.3,30.37,WSW,247,4.0,5.4,34,0.00,,FEW043,0.00,VWS V14.01,2013-03-27 16:55:00,
2013-03-27 11:56:00,45.0,18.3,30.37,WSW,245,4.0,4.0,34,0.00,,FEW043,0.00,VWS V14.01,2013-03-27 16:56:00,
2013-03-27 11:57:00,45.0,18.3,30.37,SW,232,7.2,7.2,34,0.00,,FEW043,0.00,VWS V14.01,2013-03-27 16:57:00,
2013-03-27 11:59:00,45.0,18.3,30.37,SW,232,3.6,6.3,34,0.00,,FEW043,0.00,VWS V14.01,2013-03-27 16:59:00,
2013-03-27 12:00:00,45.0,18.3,30.37,WSW,247,3.6,4.0,34,0.00,,FEW043,0.00,VWS V14.01,2013-03-27 17:00:00,
2013-03-27 12:02:00,45.1,18.5,30.37,WSW,245,3.6,3.6,34,0.00,,FEW043,0.00,VWS V14.01,2013-03-27 17:02:00,
2013-03-27 12:03:00,45.1,18.5,30.37,WSW,243,3.6,4.0,34,0.00,,FEW043,0.00,VWS V14.01,2013-03-27 17:03:00,
2013-03-27 12:04:00,45.3,18.6,30.37,SW,231,7.6,7.6,34,0.00,,FEW043,0.00,VWS V14.01,2013-03-27 17:04:00,
2013-03-27 12:05:00,45.3,18.6,30.37,WSW,240,4.9,8.1,34,0.00,,FEW043,0.00,VWS V14.01,2013-03-27 17:05:00,
2013-03-27 12:07:00,45.3,18.6,30.37,WSW,244,5.4,5.4,34,0.00,,FEW043,0.00,VWS V14.01,2013-03-27 17:07:00,
2013-03-27 12:08:00,45.3,18.6,30.37,SW,224,4.9,4.9,34,0.00,,FEW043,0.00,VWS V14.01,2013-03-27 17:08:00,
2013-03-27 12:11:00,45.1,18.5,30.37,WSW,249,5.4,6.3,34,0.00,,FEW043,0.00,VWS V14.01,2013-03-27 17:11:00,
2013-03-27 12:12:00,45.0,18.3,30.37,WSW,258,5.8,5.8,34,0.00,,FEW043,0.00,VWS V14.01,2013-03-27 17:12:00,
2013-03-27 12:13:00,44.8,18.1,30.37,West,265,4.5,4.5,34,0.00,,FEW043,0.00,VWS V14.01,2013-03-27 17:13:00,
2013-03-27 12:16:00,44.6,18.0,30.37,West,271,3.1,3.1,34,0.00,,FEW043,0.00,VWS V14.01,2013-03-27 17:16:00,
2013-03-27 12:17:00,44.6,18.0,30.37,SW,227,8.3,8.3,34,0.00,,FEW043,0.00,VWS V14.01,2013-03-27 17:17:00,
2013-03-27 12:18:00,44.8,18.1,30.37,SW,231,6.3,6.3,34,0.00,,FEW043,0.00,VWS V14.01,2013-03-27 17:18:00,
2013-03-27 12:19:00,44.8,18.1,30.37,SW,235,5.4,5.8,34,0.00,,FEW043,0.00,VWS V14.01,2013-03-27 17:19:00,
2013-03-27 12:22:00,44.8,18.1,30.37,SW,228,3.6,3.6,34,0.00,,FEW043,0.00,VWS V14.01,2013-03-27 17:22:00,
2013-03-27 12:23:00,45.0,18.3,30.37,WSW,241,4.9,4.9,34,0.00,,FEW043,0.00,VWS V14.01,2013-03-27 17:23:00,
2013-03-27 12:24:00,45.1,18.5,30.37,WSW,240,4.9,5.4,34,0.00,,FEW043,0.00,VWS V14.01,2013-03-27 17:24:00,
2013-03-27 12:27:00,45.3,18.6,30.37,WSW,251,0.0,0.0,34,0.00,,FEW043,0.00,VWS V14.01,2013-03-27 17:27:00,
2013-03-27 12:28:00,45.5,18.8,30.37,WSW,251,0.0,0.0,34,0.00,,FEW043,0.00,VWS V14.01,2013-03-27 17:28:00,
2013-03-27 12:29:00,45.7,18.9,30.37,WNW,284,2.7,4.0,34,0.00,,FEW043,0.00,VWS V14.01,2013-03-27 17:29:00,
2013-03-27 12:30:00,45.9,19.1,30.37,West,271,4.0,4.0,34,0.00,,FEW043,0.00,VWS V14.01,2013-03-27 17:30:00,
2013-03-27 12:33:00,45.9,19.1,30.37,WSW,249,3.1,5.4,34,0.00,,FEW043,0.00,VWS V14.01,2013-03-27 17:33:00,
2013-03-27 12:34:00,45.9,19.1,30.37,WSW,241,6.3,6.3,34,0.00,,FEW043,0.00,VWS V14.01,2013-03-27 17:34:00,
2013-03-27 12:35:00,45.9,19.1,30.37,SW,234,4.0,4.9,34,0.00,,FEW043,0.00,VWS V14.01,2013-03-27 17:35:00,
2013-03-27 12:39:00,46.0,19.3,30.37,SW,230,5.4,5.8,34,0.00,,FEW043,0.00,VWS V14.01,2013-03-27 17:39:00,
2013-03-27 12:40:00,46.0,19.3,30.37,SSW,211,5.4,5.4,34,0.00,,FEW043,0.00,VWS V14.01,2013-03-27 17:40:00,
2013-03-27 12:42:00,46.0,19.3,30.37,SW,230,7.2,7.2,34,0.00,,FEW043,0.00,VWS V14.01,2013-03-27 17:42:00,
2013-03-27 12:44:00,45.9,19.1,30.37,West,261,4.0,6.7,34,0.00,,FEW043,0.00,VWS V14.01,2013-03-27 17:44:00,
2013-03-27 12:45:00,45.5,18.8,30.37,WSW,256,4.9,5.8,34,0.00,,FEW043,0.00,VWS V14.01,2013-03-27 17:45:00,
2013-03-27 12:46:00,45.5,18.8,30.37,SW,236,5.4,6.3,34,0.00,,FEW043,0.00,VWS V14.01,2013-03-27 17:46:00,
2013-03-27 12:47:00,45.3,18.6,30.37,SW,236,5.8,5.8,34,0.00,,FEW043,0.00,VWS V14.01,2013-03-27 17:47:00,
2013-03-27 12:49:00,45.3,18.6,30.37,West,268,3.6,5.8,34,0.00,,FEW043,0.00,VWS V14.01,2013-03-27 17:49:00,
2013-03-27 12:50:00,45.3,18.6,30.37,West,280,4.0,5.8,34,0.00,,FEW043,0.00,VWS V14.01,2013-03-27 17:50:00,
2013-03-27 12:51:00,45.3,18.6,30.37,West,280,0.0,0.0,34,0.00,,FEW043,0.00,VWS V14.01,2013-03-27 17:51:00,
2013-03-27 12:52:00,45.3,18.6,30.37,West,280,2.2,2.7,34,0.00,,FEW043,0.00,VWS V14.01,2013-03-27 17:52:00,
2013-03-27 12:55:00,45.7,18.9,30.37,SW,233,5.4,5.4,34,0.00,,FEW043,0.00,VWS V14.01,2013-03-27 17:55:00,
2013-03-27 12:57:00,46.0,19.3,30.37,WSW,252,2.2,2.2,34,0.00,,FEW043,0.00,VWS V14.01,2013-03-27 17:57:00,
2013-03-27 13:00:00,46.2,19.4,30.37,South,186,5.4,5.4,34,0.00,,FEW043,0.00,VWS V14.01,2013-03-27 18:00:00,
2013-03-27 13:02:00,46.0,19.3,30.37,South,176,8.1,8.3,34,0.00,,FEW043,0.00,VWS V14.01,2013-03-27 18:02:00,
2013-03-27 13:03:00,46.0,19.3,30.37,South,176,8.1,8.3,34,0.00,,FEW043,0.00,VWS V14.01,2013-03-27 18:03:00,
2013-03-27 13:05:00,45.7,18.9,30.37,SSE,164,2.7,5.4,34,0.00,,FEW043,0.00,VWS V14.01,2013-03-27 18:05:00,
2013-03-27 13:07:00,45.7,18.9,30.37,WSW,241,4.9,5.4,34,0.00,,FEW043,0.00,VWS V14.01,2013-03-27 18:07:00,
2013-03-27 13:08:00,45.9,19.1,30.37,WSW,241,2.2,4.9,34,0.00,,FEW043,0.00,VWS V14.01,2013-03-27 18:08:00,
2013-03-27 13:09:00,45.9,19.1,30.35,WSW,247,0.0,3.6,34,0.00,,FEW043,0.00,VWS V14.01,2013-03-27 18:09:00,
2013-03-27 13:10:00,45.9,19.1,30.35,WSW,247,0.0,2.2,34,0.00,,FEW043,0.00,VWS V14.01,2013-03-27 18:10:00,
2013-03-27 13:13:00,46.4,19.6,30.35,South,169,4.9,4.9,34,0.00,,FEW043,0.00,VWS V14.01,2013-03-27 18:13:00,
2013-03-27 13:14:00,46.4,19.6,30.35,WSW,246,6.3,6.3,34,0.00,,FEW043,0.00,VWS V14.01,2013-03-27 18:14:00,
2013-03-27 13:16:00,46.6,19.7,30.35,West,267,5.4,5.4,34,0.00,,FEW043,0.00,VWS V14.01,2013-03-27 18:16:00,
2013-03-27 13:19:00,46.2,19.4,30.35,WSW,240,5.4,5.4,34,0.00,,FEW043,0.00,VWS V14.01,2013-03-27 18:19:00,
2013-03-27 13:20:00,46.2,19.4,30.35,SW,234,5.8,5.8,34,0.00,,FEW043,0.00,VWS V14.01,2013-03-27 18:20:00,
2013-03-27 13:22:00,46.2,19.4,30.35,West,261,3.1,3.6,34,0.00,,FEW043,0.00,VWS V14.01,2013-03-27 18:22:00,
2013-03-27 13:24:00,46.2,19.4,30.35,SW,235,7.6,7.6,34,0.00,,FEW043,0.00,VWS V14.01,2013-03-27 18:24:00,
2013-03-27 13:25:00,46.2,19.4,30.35,SW,234,6.3,7.6,34,0.00,,FEW043,0.00,VWS V14.01,2013-03-27 18:25:00,
2013-03-27 13:26:00,46.0,19.3,30.35,SW,232,4.0,6.3,34,0.00,,FEW043,0.00,VWS V14.01,2013-03-27 18:26:00,
2013-03-27 13:27:00,46.0,19.3,30.35,SSW,202,5.8,5.8,34,0.00,,FEW043,0.00,VWS V14.01,2013-03-27 18:27:00,
2013-03-27 13:29:00,46.2,19.4,30.35,South,174,5.4,6.3,34,0.00,,FEW043,0.00,VWS V14.01,2013-03-27 18:29:00,
2013-03-27 13:30:00,46.2,19.4,30.35,South,169,3.6,4.0,34,0.00,,FEW043,0.00,VWS V14.01,2013-03-27 18:30:00,
2013-03-27 13:32:00,46.4,19.6,30.35,SSW,207,4.0,4.0,34,0.00,,FEW043,0.00,VWS V14.01,2013-03-27 18:32:00,
2013-03-27 13:33:00,46.4,19.6,30.35,SSW,207,2.7,4.0,34,0.00,,FEW043,0.00,VWS V14.01,2013-03-27 18:33:00,
2013-03-27 13:35:00,46.6,19.7,30.35,WSW,238,4.0,7.2,34,0.00,,FEW043,0.00,VWS V14.01,2013-03-27 18:35:00,
2013-03-27 13:38:00,46.9,20.0,30.35,SSW,211,5.4,5.4,34,0.00,,FEW043,0.00,VWS V14.01,2013-03-27 18:38:00,
2013-03-27 13:40:00,47.3,20.4,30.35,SSW,212,0.0,2.7,34,0.00,,FEW043,0.00,VWS V14.01,2013-03-27 18:40:00,
2013-03-27 13:41:00,47.5,20.5,30.35,SSW,212,0.0,0.0,34,0.00,,FEW043,0.00,VWS V14.01,2013-03-27 18:41:00,
2013-03-27 13:43:00,47.7,20.7,30.35,SSW,192,3.1,4.9,34,0.00,,FEW043,0.00,VWS V14.01,2013-03-27 18:43:00,
2013-03-27 13:45:00,47.7,20.7,30.35,South,179,5.4,5.4,34,0.00,,FEW043,0.00,VWS V14.01,2013-03-27 18:45:00,
2013-03-27 13:47:00,47.5,20.5,30.35,SSE,159,2.7,4.9,34,0.00,,FEW043,0.00,VWS V14.01,2013-03-27 18:47:00,
2013-03-27 13:48:00,47.5,20.5,30.35,SSW,194,4.0,4.0,34,0.00,,FEW043,0.00,VWS V14.01,2013-03-27 18:48:00,
2013-03-27 13:50:00,47.5,20.5,30.35,SE,141,0.0,4.0,34,0.00,,FEW043,0.00,VWS V14.01,2013-03-27 18:50:00,
2013-03-27 13:52:00,47.8,20.9,30.35,SW,234,3.6,3.6,34,0.00,,FEW043,0.00,VWS V14.01,2013-03-27 18:52:00,
2013-03-27 13:54:00,47.8,20.9,30.35,WSW,250,4.9,6.3,34,0.00,,FEW043,0.00,VWS V14.01,2013-03-27 18:54:00,
2013-03-27 13:55:00,47.7,20.7,30.35,SW,219,8.3,8.3,34,0.00,,FEW043,0.00,VWS V14.01,2013-03-27 18:55:00,
2013-03-27 13:58:00,47.5,20.5,30.35,SW,227,6.3,6.3,34,0.00,,FEW043,0.00,VWS V14.01,2013-03-27 18:58:00,
2013-03-27 13:59:00,47.3,20.4,30.35,WSW,249,3.1,5.8,34,0.00,,FEW043,0.00,VWS V14.01,2013-03-27 18:59:00,
2013-03-27 14:00:00,47.3,20.4,30.35,WSW,249,3.1,3.6,34,0.00,,FEW043,0.00,VWS V14.01,2013-03-27 19:00:00,
2013-03-27 14:01:00,47.3,20.4,30.35,WSW,250,2.2,3.6,34,0.00,,FEW043,0.00,VWS V14.01,2013-03-27 19:01:00,
2013-03-27 14:03:00,47.7,20.7,30.35,WSW,252,2.7,3.1,34,0.00,,FEW043,0.00,VWS V14.01,2013-03-27 19:03:00,
2013-03-27 14:04:00,47.7,20.7,30.35,West,266,2.7,4.0,34,0.00,,FEW043,0.00,VWS V14.01,2013-03-27 19:04:00,
2013-03-27 14:06:00,47.7,20.7,30.35,WSW,250,4.9,4.9,34,0.00,,FEW043,0.00,VWS V14.01,2013-03-27 19:06:00,
2013-03-27 14:08:00,47.7,20.7,30.32,SSW,209,3.6,7.6,34,0.00,,FEW043,0.00,VWS V14.01,2013-03-27 19:08:00,
2013-03-27 14:10:00,47.5,20.5,30.32,South,176,3.6,5.8,34,0.00,,FEW043,0.00,VWS V14.01,2013-03-27 19:10:00,
2013-03-27 14:11:00,47.5,20.5,30.32,South,179,2.7,4.0,34,0.00,,FEW043,0.00,VWS V14.01,2013-03-27 19:11:00,
2013-03-27 14:12:00,47.5,20.5,30.32,South,180,3.6,4.0,34,0.00,,FEW043,0.00,VWS V14.01,2013-03-27 19:12:00,
2013-03-27 14:14:00,47.7,20.7,30.32,South,180,2.7,3.6,34,0.00,,FEW043,0.00,VWS V14.01,2013-03-27 19:14:00,
2013-03-27 14:15:00,47.8,20.9,30.32,South,188,5.4,6.7,34,0.00,,FEW043,0.00,VWS V14.01,2013-03-27 19:15:00,
2013-03-27 14:17:00,47.8,20.9,30.32,SSE,165,5.4,5.4,34,0.00,,FEW043,0.00,VWS V14.01,2013-03-27 19:17:00,
2013-03-27 14:19:00,47.7,20.7,30.32,South,173,5.4,5.8,34,0.00,,FEW043,0.00,VWS V14.01,2013-03-27 19:19:00,
2013-03-27 14:20:00,47.7,20.7,30.32,South,178,5.4,8.1,34,0.00,,FEW043,0.00,VWS V14.01,2013-03-27 19:20:00,
2013-03-27 14:22:00,47.5,20.5,30.32,SSE,151,5.8,5.8,34,0.00,,FEW043,0.00,VWS V14.01,2013-03-27 19:22:00,
2013-03-27 14:23:00,47.5,20.5,30.32,SSE,151,0.0,0.0,34,0.00,,FEW043,0.00,VWS V14.01,2013-03-27 19:23:00,
2013-03-27 14:26:00,47.7,20.7,30.32,South,174,4.0,5.8,34,0.00,,FEW043,0.00,VWS V14.01,2013-03-27 19:26:00,
2013-03-27 14:28:00,47.8,20.9,30.32,South,176,2.2,4.9,34,0.00,,FEW043,0.00,VWS V14.01,2013-03-27 19:28:00,
2013-03-27 14:29:00,48.0,21.0,30.32,South,177,0.0,3.1,34,0.00,,FEW043,0.00,VWS V14.01,2013-03-27 19:29:00,
2013-03-27 14:31:00,48.2,19.7,30.32,SSW,206,3.6,4.0,32,0.00,,FEW043,0.00,VWS V14.01,2013-03-27 19:31:00,
2013-03-27 14:34:00,48.4,19.9,30.32,WSW,246,3.6,3.6,32,0.00,,FEW043,0.00,VWS V14.01,2013-03-27 19:34:00,
2013-03-27 14:36:00,48.6,20.1,30.32,WSW,252,3.1,4.0,32,0.00,,FEW043,0.00,VWS V14.01,2013-03-27 19:36:00,
2013-03-27 14:40:00,48.9,20.4,30.32,WSW,257,3.1,4.0,32,0.00,,FEW043,0.00,VWS V14.01,2013-03-27 19:40:00,
2013-03-27 14:41:00,48.9,20.4,30.32,WSW,256,3.6,4.0,32,0.00,,FEW043,0.00,VWS V14.01,2013-03-27 19:41:00,
2013-03-27 14:42:00,48.9,20.4,30.32,WSW,249,3.1,3.1,32,0.00,,FEW043,0.00,VWS V14.01,2013-03-27 19:42:00,
2013-03-27 14:45:00,48.9,20.4,30.32,SW,224,4.5,4.5,32,0.00,,FEW043,0.00,VWS V14.01,2013-03-27 19:45:00,
2013-03-27 14:46:00,48.9,20.4,30.32,SSW,206,5.4,5.4,32,0.00,,FEW043,0.00,VWS V14.01,2013-03-27 19:46:00,
2013-03-27 14:47:00,49.1,20.5,30.32,SSW,206,2.2,3.6,32,0.00,,FEW043,0.00,VWS V14.01,2013-03-27 19:47:00,
2013-03-27 14:49:00,49.1,20.5,30.32,South,189,8.1,8.1,32,0.00,,FEW043,0.00,VWS V14.01,2013-03-27 19:49:00,
2013-03-27 14:51:00,48.9,20.4,30.32,SSW,200,6.3,7.6,32,0.00,,FEW043,0.00,VWS V14.01,2013-03-27 19:51:00,
2013-03-27 14:52:00,48.6,20.1,30.32,SSW,209,5.8,6.3,32,0.00,,FEW043,0.00,VWS V14.01,2013-03-27 19:52:00,
2013-03-27 14:54:00,48.6,20.1,30.32,SSW,208,2.2,2.2,32,0.00,,FEW043,0.00,VWS V14.01,2013-03-27 19:54:00,
2013-03-27 14:55:00,48.6,20.1,30.32,SSW,208,3.6,3.6,32,0.00,,FEW043,0.00,VWS V14.01,2013-03-27 19:55:00,
2013-03-27 14:57:00,48.7,20.2,30.32,SSW,213,2.7,3.1,32,0.00,,FEW043,0.00,VWS V14.01,2013-03-27 19:57:00,
2013-03-27 14:58:00,48.9,20.4,30.32,West,267,0.0,0.0,32,0.00,,FEW043,0.00,VWS V14.01,2013-03-27 19:58:00,
2013-03-27 14:59:00,48.9,20.4,30.32,West,274,0.0,2.7,32,0.00,,FEW043,0.00,VWS V14.01,2013-03-27 19:59:00,
2013-03-27 15:02:00,49.3,20.7,30.32,West,268,2.2,2.7,32,0.00,,FEW043,0.00,VWS V14.01,2013-03-27 20:02:00,
2013-03-27 15:04:00,49.8,21.2,30.32,SSW,194,2.7,3.6,32,0.00,,FEW043,0.00,VWS V14.01,2013-03-27 20:04:00,
2013-03-27 15:07:00,50.2,21.5,30.32,SSE,168,4.9,4.9,32,0.00,,FEW043,0.00,VWS V14.01,2013-03-27 20:07:00,
2013-03-27 15:08:00,50.2,21.5,30.32,South,172,3.6,4.9,32,0.00,,FEW043,0.00,VWS V14.01,2013-03-27 20:08:00,
2013-03-27 15:09:00,50.2,21.5,30.32,SW,223,4.0,4.0,32,0.00,,FEW043,0.00,VWS V14.01,2013-03-27 20:09:00,
2013-03-27 15:10:00,50.2,21.5,30.32,WSW,243,4.0,4.0,32,0.00,,FEW043,0.00,VWS V14.01,2013-03-27 20:10:00,
2013-03-27 15:13:00,50.2,21.5,30.32,WSW,243,4.0,4.5,32,0.00,,FEW043,0.00,VWS V14.01,2013-03-27 20:13:00,
2013-03-27 15:15:00,50.2,21.5,30.32,West,277,3.6,3.6,32,0.00,,FEW043,0.00,VWS V14.01,2013-03-27 20:15:00,
2013-03-27 15:18:00,49.8,21.2,30.32,SW,230,4.0,4.0,32,0.00,,FEW043,0.00,VWS V14.01,2013-03-27 20:18:00,
2013-03-27 15:20:00,49.8,21.2,30.32,SW,223,0.0,3.1,32,0.00,,FEW043,0.00,VWS V14.01,2013-03-27 20:20:00,
2013-03-27 15:21:00,49.8,21.2,30.32,SW,224,0.0,0.0,32,0.00,,FEW043,0.00,VWS V14.01,2013-03-27 20:21:00,
2013-03-27 15:24:00,50.4,21.6,30.29,NE,34,3.1,3.1,32,0.00,,FEW043,0.00,VWS V14.01,2013-03-27 20:24:00,
2013-03-27 15:25:00,50.5,21.8,30.29,NE,34,0.0,3.1,32,0.00,,FEW043,0.00,VWS V14.01,2013-03-27 20:25:00,
2013-03-27 15:26:00,50.7,22.0,30.29,NNE,32,0.0,0.0,32,0.00,,FEW043,0.00,VWS V14.01,2013-03-27 20:26:00,
2013-03-27 15:27:00,50.9,22.1,30.29,SE,140,2.7,3.1,32,0.00,,FEW043,0.00,VWS V14.01,2013-03-27 20:27:00,
2013-03-27 15:30:00,50.7,22.0,30.29,South,184,4.9,5.4,32,0.00,,FEW043,0.00,VWS V14.01,2013-03-27 20:30:00,
2013-03-27 15:31:00,50.7,22.0,30.29,South,184,2.2,5.4,32,0.00,,FEW043,0.00,VWS V14.01,2013-03-27 20:31:00,
2013-03-27 15:32:00,50.7,22.0,30.29,South,176,2.7,2.7,32,0.00,,FEW043,0.00,VWS V14.01,2013-03-27 20:32:00,
2013-03-27 15:33:00,50.5,21.8,30.29,SSE,149,3.6,4.0,32,0.00,,FEW043,0.00,VWS V14.01,2013-03-27 20:33:00,
2013-03-27 15:35:00,50.7,22.0,30.29,SSW,213,4.0,4.0,32,0.00,,FEW043,0.00,VWS V14.01,2013-03-27 20:35:00,
2013-03-27 15:36:00,50.7,22.0,30.29,SSW,212,0.0,2.7,32,0.00,,FEW043,0.00,VWS V14.01,2013-03-27 20:36:00,
2013-03-27 15:37:00,50.9,22.1,30.29,SSW,213,0.0,0.0,32,0.00,,FEW043,0.00,VWS V14.01,2013-03-27 20:37:00,
2013-03-27 15:38:00,50.9,22.1,30.29,SSW,213,0.0,0.0,32,0.00,,FEW043,0.00,VWS V14.01,2013-03-27 20:38:00,
2013-03-27 15:41:00,51.1,22.3,30.29,SSE,165,4.0,4.0,32,0.00,,FEW043,0.00,VWS V14.01,2013-03-27 20:41:00,
2013-03-27 15:42:00,51.1,22.3,30.29,SSE,167,3.6,4.0,32,0.00,,FEW043,0.00,VWS V14.01,2013-03-27 20:42:00,
2013-03-27 15:43:00,51.3,22.4,30.29,SSE,164,3.6,3.6,32,0.00,,FEW043,0.00,VWS V14.01,2013-03-27 20:43:00,
2013-03-27 15:47:00,51.6,22.7,30.29,SE,127,4.9,5.4,32,0.00,,FEW043,0.00,VWS V14.01,2013-03-27 20:47:00,
2013-03-27 15:48:00,51.6,22.7,30.29,ESE,115,3.1,5.4,32,0.00,,FEW043,0.00,VWS V14.01,2013-03-27 20:48:00,
2013-03-27 15:52:00,51.6,22.7,30.29,ESE,116,2.7,3.1,32,0.00,,FEW043,0.00,VWS V14.01,2013-03-27 20:52:00,
2013-03-27 15:53:00,51.6,22.7,30.29,ESE,116,0.0,3.1,32,0.00,,FEW043,0.00,VWS V14.01,2013-03-27 20:53:00,
2013-03-27 15:57:00,51.8,22.9,30.29,SSE,148,0.0,3.1,32,0.00,,FEW043,0.00,VWS V14.01,2013-03-27 20:57:00,
2013-03-27 15:58:00,51.8,22.9,30.29,SSE,163,4.0,4.0,32,0.00,,FEW043,0.00,VWS V14.01,2013-03-27 20:58:00,
2013-03-27 15:59:00,51.8,22.9,30.29,South,189,3.1,6.3,32,0.00,,FEW043,0.00,VWS V14.01,2013-03-27 20:59:00,
2013-03-27 16:03:00,51.3,22.4,30.29,SSE,160,4.9,4.9,32,0.00,,FEW043,0.00,VWS V14.01,2013-03-27 21:03:00,
2013-03-27 16:04:00,51.3,22.4,30.29,SE,143,5.4,5.4,32,0.00,,FEW043,0.00,VWS V14.01,2013-03-27 21:04:00,
2013-03-27 16:08:00,51.1,22.3,30.29,SSE,154,5.8,5.8,32,0.00,,FEW043,0.00,VWS V14.01,2013-03-27 21:08:00,
2013-03-27 16:09:00,51.1,22.3,30.29,SSE,151,3.6,4.9,32,0.00,,FEW043,0.00,VWS V14.01,2013-03-27 21:09:00,
2013-03-27 16:10:00,51.1,22.3,30.29,SSE,153,5.8,5.8,32,0.00,,FEW043,0.00,VWS V14.01,2013-03-27 21:10:00,
2013-03-27 16:13:00,51.3,22.4,30.29,ENE,69,2.7,6.3,32,0.00,,FEW043,0.00,VWS V14.01,2013-03-27 21:13:00,
2013-03-27 16:14:00,51.3,22.4,30.29,ENE,70,5.8,6.3,32,0.00,,FEW043,0.00,VWS V14.01,2013-03-27 21:14:00,
2013-03-27 16:16:00,51.4,22.6,30.29,ENE,73,2.7,4.0,32,0.00,,FEW043,0.00,VWS V14.01,2013-03-27 21:16:00,
2013-03-27 16:19:00,52.0,23.1,30.29,ENE,76,5.4,5.4,32,0.00,,FEW043,0.00,VWS V14.01,2013-03-27 21:19:00,
2013-03-27 16:20:00,52.0,23.1,30.29,ENE,77,2.7,5.4,32,0.00,,FEW043,0.00,VWS V14.01,2013-03-27 21:20:00,
2013-03-27 16:21:00,52.2,23.2,30.29,ENE,78,3.1,5.4,32,0.00,,FEW043,0.00,VWS V14.01,2013-03-27 21:21:00,
2013-03-27 16:24:00,52.2,23.2,30.29,ESE,112,0.0,0.0,32,0.00,,FEW043,0.00,VWS V14.01,2013-03-27 21:24:00,
2013-03-27 16:25:00,52.3,23.4,30.29,SE,134,3.6,5.4,32,0.00,,FEW043,0.00,VWS V14.01,2013-03-27 21:25:00,
2013-03-27 16:26:00,52.3,23.4,30.29,SE,134,3.6,5.4,32,0.00,,FEW043,0.00,VWS V14.01,2013-03-27 21:26:00,
2013-03-27 16:29:00,52.0,23.1,30.29,SSE,164,4.0,4.0,32,0.00,,FEW043,0.00,VWS V14.01,2013-03-27 21:29:00,
2013-03-27 16:31:00,51.8,22.9,30.29,SE,139,4.0,4.0,32,0.00,,FEW043,0.00,VWS V14.01,2013-03-27 21:31:00,
2013-03-27 16:34:00,51.1,22.3,30.29,SE,125,0.0,3.6,32,0.00,,FEW043,0.00,VWS V14.01,2013-03-27 21:34:00,
2013-03-27 16:35:00,51.1,22.3,30.29,SE,125,2.2,2.2,32,0.00,,FEW043,0.00,VWS V14.01,2013-03-27 21:35:00,
2013-03-27 16:36:00,51.1,22.3,30.29,ESE,120,2.7,2.7,32,0.00,,FEW043,0.00,VWS V14.01,2013-03-27 21:36:00,
2013-03-27 16:40:00,51.3,22.4,30.29,SE,135,4.9,4.9,32,0.00,,FEW043,0.00,VWS V14.01,2013-03-27 21:40:00,
2013-03-27 16:41:00,51.4,22.6,30.29,East,92,4.0,4.9,32,0.00,,FEW043,0.00,VWS V14.01,2013-03-27 21:41:00,
2013-03-27 16:46:00,51.4,22.6,30.29,SE,133,3.1,3.1,32,0.00,,FEW043,0.00,VWS V14.01,2013-03-27 21:46:00,
2013-03-27 16:47:00,51.4,22.6,30.29,SE,133,0.0,0.0,32,0.00,,FEW043,0.00,VWS V14.01,2013-03-27 21:47:00,
2013-03-27 16:48:00,51.4,22.6,30.29,SE,131,0.0,3.6,32,0.00,,FEW043,0.00,VWS V14.01,2013-03-27 21:48:00,
2013-03-27 16:51:00,51.6,22.7,30.29,ENE,70,2.7,2.7,32,0.00,,FEW043,0.00,VWS V14.01,2013-03-27 21:51:00,
2013-03-27 16:52:00,51.6,22.7,30.29,ENE,70,0.0,3.6,32,0.00,,FEW043,0.00,VWS V14.01,2013-03-27 21:52:00,
2013-03-27 16:53:00,51.6,22.7,30.29,ENE,72,3.1,3.6,32,0.00,,FEW043,0.00,VWS V14.01,2013-03-27 21:53:00,
2013-03-27 16:56:00,51.6,22.7,30.29,ESE,115,4.0,4.0,32,0.00,,FEW043,0.00,VWS V14.01,2013-03-27 21:56:00,
2013-03-27 16:57:00,51.6,22.7,30.29,SSE,149,2.7,4.0,32,0.00,,FEW043,0.00,VWS V14.01,2013-03-27 21:57:00,
2013-03-27 16:58:00,51.6,22.7,30.29,SE,133,4.0,5.4,32,0.00,,FEW043,0.00,VWS V14.01,2013-03-27 21:58:00,
2013-03-27 17:02:00,51.4,22.6,30.29,SE,132,0.0,2.7,32,0.00,,FEW043,0.00,VWS V14.01,2013-03-27 22:02:00,
2013-03-27 17:03:00,51.6,22.7,30.29,SE,132,0.0,0.0,32,0.00,,FEW043,0.00,VWS V14.01,2013-03-27 22:03:00,
2013-03-27 17:04:00,51.6,22.7,30.29,East,99,2.7,2.7,32,0.00,,FEW043,0.00,VWS V14.01,2013-03-27 22:04:00,
2013-03-27 17:07:00,51.6,22.7,30.29,SE,128,3.6,3.6,32,0.00,,FEW043,0.00,VWS V14.01,2013-03-27 22:07:00,
2013-03-27 17:09:00,51.6,22.7,30.29,SSE,148,4.9,5.8,32,0.00,,FEW043,0.00,VWS V14.01,2013-03-27 22:09:00,
2013-03-27 17:13:00,51.1,22.3,30.29,SE,136,3.1,3.1,32,0.00,,FEW043,0.00,VWS V14.01,2013-03-27 22:13:00,
2013-03-27 17:14:00,51.1,22.3,30.29,ESE,123,5.4,5.4,32,0.00,,FEW043,0.00,VWS V14.01,2013-03-27 22:14:00,
2013-03-27 17:15:00,50.9,22.1,30.29,SE,146,5.8,5.8,32,0.00,,FEW043,0.00,VWS V14.01,2013-03-27 22:15:00,
2013-03-27 17:18:00,50.5,21.8,30.29,SE,134,0.0,0.0,32,0.00,,FEW043,0.00,VWS V14.01,2013-03-27 22:18:00,
2013-03-27 17:19:00,50.5,21.8,30.29,SE,134,3.6,3.6,32,0.00,,FEW043,0.00,VWS V14.01,2013-03-27 22:19:00,
2013-03-27 17:20:00,50.5,21.8,30.29,SE,139,4.9,5.8,32,0.00,,FEW043,0.00,VWS V14.01,2013-03-27 22:20:00,
2013-03-27 17:21:00,50.5,21.8,30.29,ESE,122,5.8,7.6,32,0.00,,FEW043,0.00,VWS V14.01,2013-03-27 22:21:00,
2013-03-27 17:24:00,50.0,21.3,30.29,SE,141,5.4,8.3,32,0.00,,FEW043,0.00,VWS V14.01,2013-03-27 22:24:00,
2013-03-27 17:25:00,49.8,21.2,30.29,SSE,164,2.7,6.3,32,0.00,,FEW043,0.00,VWS V14.01,2013-03-27 22:25:00,
2013-03-27 17:26:00,49.8,21.2,30.29,SE,134,2.2,4.0,32,0.00,,FEW043,0.00,VWS V14.01,2013-03-27 22:26:00,
2013-03-27 17:29:00,49.8,21.2,30.29,ESE,118,0.0,0.0,32,0.00,,FEW043,0.00,VWS V14.01,2013-03-27 22:29:00,
2013-03-27 17:30:00,49.8,21.2,30.29,SE,127,5.4,5.4,32,0.00,,FEW043,0.00,VWS V14.01,2013-03-27 22:30:00,
2013-03-27 17:32:00,49.6,21.0,30.29,SSE,165,5.8,5.8,32,0.00,,FEW043,0.00,VWS V14.01,2013-03-27 22:32:00,
2013-03-27 17:34:00,49.6,21.0,30.29,SSE,153,2.7,3.6,32,0.00,,FEW043,0.00,VWS V14.01,2013-03-27 22:34:00,
2013-03-27 17:35:00,49.5,20.9,30.29,SSE,153,3.1,3.6,32,0.00,,FEW043,0.00,VWS V14.01,2013-03-27 22:35:00,
2013-03-27 17:38:00,49.5,20.9,30.29,SSE,158,3.1,3.1,32,0.00,,FEW043,0.00,VWS V14.01,2013-03-27 22:38:00,
2013-03-27 17:40:00,49.3,20.7,30.29,South,176,8.3,8.3,32,0.00,,FEW043,0.00,VWS V14.01,2013-03-27 22:40:00,
2013-03-27 17:41:00,49.1,20.5,30.29,SSW,200,5.4,8.3,32,0.00,,FEW043,0.00,VWS V14.01,2013-03-27 22:41:00,
2013-03-27 17:43:00,48.7,20.2,30.29,South,180,5.4,5.8,32,0.00,,FEW043,0.00,VWS V14.01,2013-03-27 22:43:00,
2013-03-27 17:45:00,48.2,19.7,30.29,SSE,163,5.8,5.8,32,0.00,,FEW043,0.00,VWS V14.01,2013-03-27 22:45:00,
2013-03-27 17:46:00,48.2,19.7,30.29,SSE,147,4.9,5.8,32,0.00,,FEW043,0.00,VWS V14.01,2013-03-27 22:46:00,
2013-03-27 17:47:00,48.2,19.7,30.29,SSE,162,5.8,5.8,32,0.00,,FEW043,0.00,VWS V14.01,2013-03-27 22:47:00,
2013-03-27 17:48:00,48.0,21.0,30.29,SSE,162,5.4,6.3,34,0.00,,FEW043,0.00,VWS V14.01,2013-03-27 22:48:00,
2013-03-27 17:50:00,47.8,20.9,30.29,SSE,152,5.8,7.6,34,0.00,,FEW043,0.00,VWS V14.01,2013-03-27 22:50:00,
2013-03-27 17:51:00,47.8,20.9,30.29,SSE,151,3.1,5.4,34,0.00,,FEW043,0.00,VWS V14.01,2013-03-27 22:51:00,
2013-03-27 17:52:00,47.8,20.9,30.29,SE,146,8.3,8.3,34,0.00,,FEW043,0.00,VWS V14.01,2013-03-27 22:52:00,
2013-03-27 17:53:00,47.7,20.7,30.29,SE,143,5.4,5.8,34,0.00,,FEW043,0.00,VWS V14.01,2013-03-27 22:53:00,
2013-03-27 17:55:00,47.5,20.5,30.29,SE,124,6.3,6.3,34,0.00,,FEW043,0.00,VWS V14.01,2013-03-27 22:55:00,
2013-03-27 17:57:00,47.3,20.4,30.29,ESE,120,3.1,5.4,34,0.00,,FEW043,0.00,VWS V14.01,2013-03-27 22:57:00,
2013-03-27 17:58:00,47.3,20.4,30.29,ESE,120,4.9,5.4,34,0.00,,FEW043,0.00,VWS V14.01,2013-03-27 22:58:00,
2013-03-27 18:00:00,47.3,20.4,30.29,SE,129,0.0,4.9,34,0.00,,FEW043,0.00,VWS V14.01,2013-03-27 23:00:00,
2013-03-27 18:03:00,47.3,20.4,30.29,ESE,120,0.0,0.0,34,0.00,,FEW043,0.00,VWS V14.01,2013-03-27 23:03:00,
2013-03-27 18:05:00,47.3,20.4,30.29,SSE,162,0.0,3.1,34,0.00,,FEW043,0.00,VWS V14.01,2013-03-27 23:05:00,
2013-03-27 18:08:00,47.5,20.5,30.29,ESE,120,2.7,3.1,34,0.00,,FEW043,0.00,VWS V14.01,2013-03-27 23:08:00,
2013-03-27 18:10:00,47.3,20.4,30.29,SE,134,4.5,5.4,34,0.00,,FEW043,0.00,VWS V14.01,2013-03-27 23:10:00,
2013-03-27 18:11:00,47.3,20.4,30.29,SE,139,5.4,6.3,34,0.00,,FEW043,0.00,VWS V14.01,2013-03-27 23:11:00,
2013-03-27 18:13:00,47.1,20.2,30.29,SE,146,4.9,5.4,34,0.00,,FEW043,0.00,VWS V14.01,2013-03-27 23:13:00,
2013-03-27 18:14:00,47.1,20.2,30.29,SE,144,4.0,5.4,34,0.00,,FEW043,0.00,VWS V14.01,2013-03-27 23:14:00,
2013-03-27 18:16:00,46.9,20.0,30.29,South,169,4.9,6.3,34,0.00,,FEW043,0.00,VWS V14.01,2013-03-27 23:16:00,
2013-03-27 18:17:00,46.9,20.0,30.29,SSE,160,3.1,3.1,34,0.00,,FEW043,0.00,VWS V14.01,2013-03-27 23:17:00,
2013-03-27 18:19:00,46.8,19.9,30.29,ESE,123,4.0,4.0,34,0.00,,FEW043,0.00,VWS V14.01,2013-03-27 23:19:00,
2013-03-27 18:21:00,46.8,19.9,30.29,SE,135,4.9,4.9,34,0.00,,FEW043,0.00,VWS V14.01,2013-03-27 23:21:00,
2013-03-27 18:23:00,46.6,19.7,30.29,SE,129,4.0,5.4,34,0.00,,FEW043,0.00,VWS V14.01,2013-03-27 23:23:00,
2013-03-27 18:24:00,46.6,19.7,30.29,SE,144,5.8,5.8,34,0.00,,FEW043,0.00,VWS V14.01,2013-03-27 23:24:00,
2013-03-27 18:26:00,46.4,19.6,30.29,SE,145,4.9,4.9,34,0.00,,FEW043,0.00,VWS V14.01,2013-03-27 23:26:00,
2013-03-27 18:27:00,46.4,19.6,30.29,SE,129,4.0,4.9,34,0.00,,FEW043,0.00,VWS V14.01,2013-03-27 23:27:00,
2013-03-27 18:29:00,46.4,19.6,30.29,SE,128,3.6,4.9,34,0.00,,FEW043,0.00,VWS V14.01,2013-03-27 23:29:00,
2013-03-27 18:32:00,46.0,19.3,30.29,SSE,155,6.3,7.6,34,0.00,,FEW043,0.00,VWS V14.01,2013-03-27 23:32:00,
2013-03-27 18:34:00,45.7,18.9,30.29,SE,127,4.0,4.9,34,0.00,,FEW043,0.00,VWS V14.01,2013-03-27 23:34:00,
2013-03-27 18:35:00,45.5,18.8,30.29,SE,136,3.1,4.9,34,0.00,,FEW043,0.00,VWS V14.01,2013-03-27 23:35:00,
2013-03-27 18:37:00,45.3,18.6,30.29,SSE,161,4.0,4.0,34,0.00,,FEW043,0.00,VWS V14.01,2013-03-27 23:37:00,
2013-03-27 18:39:00,45.3,18.6,30.29,SE,127,2.7,3.1,34,0.00,,FEW043,0.00,VWS V14.01,2013-03-27 23:39:00,
2013-03-27 18:40:00,45.1,18.5,30.29,SSE,150,3.6,4.5,34,0.00,,FEW043,0.00,VWS V14.01,2013-03-27 23:40:00,
2013-03-27 18:43:00,44.8,18.1,30.29,South,169,4.0,5.8,34,0.00,,FEW043,0.00,VWS V14.01,2013-03-27 23:43:00,
2013-03-27 18:44:00,44.6,18.0,30.29,South,180,3.6,5.8,34,0.00,,FEW043,0.00,VWS V14.01,2013-03-27 23:44:00,
2013-03-27 18:45:00,44.6,18.0,30.29,South,180,3.6,5.8,34,0.00,,FEW043,0.00,VWS V14.01,2013-03-27 23:45:00,
2013-03-27 18:48:00,44.1,18.8,30.29,South,184,4.0,4.9,36,0.00,,FEW043,0.00,VWS V14.01,2013-03-27 23:48:00,
2013-03-27 18:50:00,43.9,18.7,30.29,SSE,166,0.0,4.0,36,0.00,,FEW043,0.00,VWS V14.01,2013-03-27 23:50:00,
2013-03-27 18:51:00,43.7,18.5,30.29,SSE,166,0.0,0.0,36,0.00,,FEW043,0.00,VWS V14.01,2013-03-27 23:51:00,
2013-03-27 18:54:00,43.3,18.2,30.29,SSE,152,4.0,4.0,36,0.00,,FEW043,0.00,VWS V14.01,2013-03-27 23:54:00,
2013-03-27 18:56:00,43.2,18.0,30.29,SSE,162,3.6,4.0,36,0.00,,FEW043,0.00,VWS V14.01,2013-03-27 23:56:00,
2013-03-27 18:57:00,43.0,17.9,30.29,SSE,147,3.6,3.6,36,0.00,,FEW043,0.00,VWS V14.01,2013-03-27 23:57:00,
2013-03-27 19:00:00,42.4,17.4,30.29,SSE,164,2.7,4.0,36,0.00,,FEW043,0.00,VWS V14.01,2013-03-28 00:00:00,
2013-03-27 19:01:00,42.1,17.1,30.29,SSE,164,0.0,0.0,36,0.00,,FEW043,0.00,VWS V14.01,2013-03-28 00:01:00,
2013-03-27 19:02:00,42.1,17.1,30.29,SSE,164,0.0,0.0,36,0.00,,FEW043,0.00,VWS V14.01,2013-03-28 00:02:00,
2013-03-27 19:03:00,41.7,16.8,30.29,SSE,164,0.0,0.0,36,0.00,,FEW043,0.00,VWS V14.01,2013-03-28 00:03:00,
2013-03-27 19:05:00,41.2,16.3,30.29,SSE,164,0.0,0.0,36,0.00,,FEW043,0.00,VWS V14.01,2013-03-28 00:05:00,
2013-03-27 19:07:00,41.0,16.1,30.29,SSE,164,0.0,0.0,36,0.00,,FEW043,0.00,VWS V14.01,2013-03-28 00:07:00,
2013-03-27 19:09:00,40.6,15.8,30.29,SSE,164,0.0,2.2,36,0.00,,FEW043,0.00,VWS V14.01,2013-03-28 00:09:00,
2013-03-27 19:10:00,40.5,15.6,30.29,SSE,164,2.7,2.7,36,0.00,,FEW043,0.00,VWS V14.01,2013-03-28 00:10:00,
2013-03-27 19:12:00,40.3,15.5,30.29,SSE,164,0.0,0.0,36,0.00,,FEW043,0.00,VWS V14.01,2013-03-28 00:12:00,
2013-03-27 19:14:00,39.9,15.1,30.29,SSE,164,0.0,0.0,36,0.00,,FEW043,0.00,VWS V14.01,2013-03-28 00:14:00,
2013-03-27 19:16:00,39.7,15.0,30.29,SSE,164,0.0,0.0,36,0.00,,FEW043,0.00,VWS V14.01,2013-03-28 00:16:00,
2013-03-27 19:17:00,39.7,15.0,30.29,SSE,164,0.0,0.0,36,0.00,,FEW043,0.00,VWS V14.01,2013-03-28 00:17:00,
2013-03-27 19:19:00,39.6,14.8,30.29,SE,144,2.2,3.6,36,0.00,,FEW043,0.00,VWS V14.01,2013-03-28 00:19:00,
2013-03-27 19:20:00,39.4,14.7,30.29,SE,144,0.0,2.2,36,0.00,,FEW043,0.00,VWS V14.01,2013-03-28 00:20:00,
2013-03-27 19:21:00,39.2,14.5,30.29,SE,144,0.0,0.0,36,0.00,,FEW043,0.00,VWS V14.01,2013-03-28 00:21:00,
2013-03-27 19:24:00,39.0,15.6,30.29,SE,144,0.0,0.0,38,0.00,,FEW043,0.00,VWS V14.01,2013-03-28 00:24:00,
2013-03-27 19:26:00,38.8,15.4,30.29,SE,144,0.0,0.0,38,0.00,,FEW043,0.00,VWS V14.01,2013-03-28 00:26:00,
2013-03-27 19:27:00,38.7,15.3,30.29,SE,144,0.0,0.0,38,0.00,,FEW043,0.00,VWS V14.01,2013-03-28 00:27:00,
2013-03-27 19:29:00,38.3,14.9,30.29,SE,144,0.0,0.0,38,0.00,,FEW043,0.00,VWS V14.01,2013-03-28 00:29:00,
2013-03-27 19:30:00,38.1,14.8,30.29,SE,144,0.0,0.0,38,0.00,,FEW043,0.00,VWS V14.01,2013-03-28 00:30:00,
2013-03-27 19:31:00,38.1,14.8,30.29,SE,144,0.0,0.0,38,0.00,,FEW043,0.00,VWS V14.01,2013-03-28 00:31:00,
2013-03-27 19:32:00,37.9,14.6,30.29,SE,144,0.0,0.0,38,0.00,,FEW043,0.00,VWS V14.01,2013-03-28 00:32:00,
2013-03-27 19:34:00,37.6,14.3,30.29,SE,144,0.0,0.0,38,0.00,,FEW043,0.00,VWS V14.01,2013-03-28 00:34:00,
2013-03-27 19:35:00,37.4,14.1,30.29,SE,144,3.6,3.6,38,0.00,,FEW043,0.00,VWS V14.01,2013-03-28 00:35:00,
2013-03-27 19:37:00,37.4,14.1,30.29,SE,143,3.1,3.6,38,0.00,,FEW043,0.00,VWS V14.01,2013-03-28 00:37:00,
2013-03-27 19:40:00,37.0,13.8,30.29,SE,143,0.0,0.0,38,0.00,,FEW043,0.00,VWS V14.01,2013-03-28 00:40:00,
2013-03-27 19:42:00,36.9,13.6,30.29,SE,143,3.1,3.1,38,0.00,,FEW043,0.00,VWS V14.01,2013-03-28 00:42:00,
2013-03-27 19:43:00,36.9,13.6,30.29,SE,143,2.7,3.1,38,0.00,,FEW043,0.00,VWS V14.01,2013-03-28 00:43:00,
2013-03-27 19:45:00,36.7,13.5,30.29,East,84,0.0,3.1,38,0.00,,FEW043,0.00,VWS V14.01,2013-03-28 00:45:00,
2013-03-27 19:47:00,36.5,13.3,30.29,East,84,0.0,3.6,38,0.00,,FEW043,0.00,VWS V14.01,2013-03-28 00:47:00,
2013-03-27 19:48:00,36.5,13.3,30.29,East,83,0.0,0.0,38,0.00,,FEW043,0.00,VWS V14.01,2013-03-28 00:48:00,
2013-03-27 19:51:00,36.3,13.2,30.29,East,83,0.0,0.0,38,0.00,,FEW043,0.00,VWS V14.01,2013-03-28 00:51:00,
2013-03-27 19:52:00,36.1,13.0,30.29,East,83,0.0,0.0,38,0.00,,FEW043,0.00,VWS V14.01,2013-03-28 00:52:00,
2013-03-27 19:53:00,36.1,13.0,30.29,East,84,0.0,0.0,38,0.00,,FEW043,0.00,VWS V14.01,2013-03-28 00:53:00,
2013-03-27 19:56:00,36.1,13.0,30.29,East,84,0.0,0.0,38,0.00,,FEW043,0.00,VWS V14.01,2013-03-28 00:56:00,
2013-03-27 19:58:00,36.0,12.8,30.29,East,84,0.0,0.0,38,0.00,,FEW043,0.00,VWS V14.01,2013-03-28 00:58:00,
2013-03-27 19:59:00,35.8,12.7,30.29,East,83,0.0,0.0,38,0.00,,FEW043,0.00,VWS V14.01,2013-03-28 00:59:00,
2013-03-27 20:01:00,35.6,15.9,30.29,East,84,0.0,0.0,44,0.00,,FEW043,0.00,VWS V14.01,2013-03-28 01:01:00,
2013-03-27 20:03:00,35.6,15.9,30.29,East,84,0.0,0.0,44,0.00,,FEW043,0.00,VWS V14.01,2013-03-28 01:03:00,
2013-03-27 20:05:00,35.4,15.7,30.29,East,84,0.0,0.0,44,0.00,,FEW043,0.00,VWS V14.01,2013-03-28 01:05:00,
2013-03-27 20:07:00,35.2,15.5,30.29,East,83,0.0,0.0,44,0.00,,FEW043,0.00,VWS V14.01,2013-03-28 01:07:00,
2013-03-27 20:08:00,35.2,15.5,30.29,East,84,0.0,0.0,44,0.00,,FEW043,0.00,VWS V14.01,2013-03-28 01:08:00,
2013-03-27 20:09:00,35.2,15.5,30.29,East,83,0.0,0.0,44,0.00,,FEW043,0.00,VWS V14.01,2013-03-28 01:09:00,
2013-03-27 20:10:00,35.2,15.5,30.29,East,83,0.0,0.0,44,0.00,,FEW043,0.00,VWS V14.01,2013-03-28 01:10:00,
2013-03-27 20:13:00,35.1,15.4,30.29,East,83,0.0,0.0,44,0.00,,FEW043,0.00,VWS V14.01,2013-03-28 01:13:00,
2013-03-27 20:14:00,35.1,15.4,30.29,East,84,0.0,0.0,44,0.00,,FEW043,0.00,VWS V14.01,2013-03-28 01:14:00,
2013-03-27 20:16:00,35.1,15.4,30.29,East,83,0.0,0.0,44,0.00,,FEW043,0.00,VWS V14.01,2013-03-28 01:16:00,
2013-03-27 20:18:00,34.9,15.2,30.29,East,83,0.0,0.0,44,0.00,,FEW043,0.00,VWS V14.01,2013-03-28 01:18:00,
2013-03-27 20:19:00,34.9,15.2,30.29,East,84,0.0,0.0,44,0.00,,FEW043,0.00,VWS V14.01,2013-03-28 01:19:00,
2013-03-27 20:20:00,34.9,15.2,30.29,East,84,0.0,0.0,44,0.00,,FEW043,0.00,VWS V14.01,2013-03-28 01:20:00,
2013-03-27 20:21:00,34.9,15.2,30.29,East,84,0.0,0.0,44,0.00,,FEW043,0.00,VWS V14.01,2013-03-28 01:21:00,
2013-03-27 20:23:00,35.1,15.4,30.32,East,84,0.0,0.0,44,0.00,,FEW043,0.00,VWS V14.01,2013-03-28 01:23:00,
2013-03-27 20:25:00,35.1,15.4,30.32,East,84,0.0,0.0,44,0.00,,FEW043,0.00,VWS V14.01,2013-03-28 01:25:00,
2013-03-27 20:26:00,35.1,15.4,30.32,East,84,0.0,0.0,44,0.00,,FEW043,0.00,VWS V14.01,2013-03-28 01:26:00,
2013-03-27 20:27:00,35.1,15.4,30.32,East,84,0.0,0.0,44,0.00,,FEW043,0.00,VWS V14.01,2013-03-28 01:27:00,
2013-03-27 20:29:00,34.9,15.2,30.32,East,84,0.0,0.0,44,0.00,,FEW043,0.00,VWS V14.01,2013-03-28 01:29:00,
2013-03-27 20:30:00,34.9,15.2,30.32,East,84,0.0,0.0,44,0.00,,FEW043,0.00,VWS V14.01,2013-03-28 01:30:00,
2013-03-27 20:32:00,34.7,15.0,30.32,East,84,0.0,0.0,44,0.00,,FEW043,0.00,VWS V14.01,2013-03-28 01:32:00,
2013-03-27 20:35:00,34.5,14.9,30.32,East,84,0.0,0.0,44,0.00,,FEW043,0.00,VWS V14.01,2013-03-28 01:35:00,
2013-03-27 20:37:00,34.5,14.9,30.32,East,84,0.0,0.0,44,0.00,,FEW043,0.00,VWS V14.01,2013-03-28 01:37:00,
2013-03-27 20:40:00,34.5,14.9,30.32,East,87,0.0,0.0,44,0.00,,FEW043,0.00,VWS V14.01,2013-03-28 01:40:00,
2013-03-27 20:41:00,34.5,14.9,30.32,East,87,0.0,0.0,44,0.00,,FEW043,0.00,VWS V14.01,2013-03-28 01:41:00,
2013-03-27 20:42:00,34.5,14.9,30.32,East,87,0.0,0.0,44,0.00,,FEW043,0.00,VWS V14.01,2013-03-28 01:42:00,
2013-03-27 20:45:00,34.9,15.2,30.32,East,87,0.0,0.0,44,0.00,,FEW043,0.00,VWS V14.01,2013-03-28 01:45:00,
2013-03-27 20:46:00,34.9,15.2,30.32,East,87,0.0,0.0,44,0.00,,FEW043,0.00,VWS V14.01,2013-03-28 01:46:00,
2013-03-27 20:47:00,34.9,15.2,30.32,East,87,0.0,0.0,44,0.00,,FEW043,0.00,VWS V14.01,2013-03-28 01:47:00,
2013-03-27 20:48:00,34.9,15.2,30.32,East,87,0.0,0.0,44,0.00,,FEW043,0.00,VWS V14.01,2013-03-28 01:48:00,
2013-03-27 20:51:00,35.1,18.3,30.32,East,87,0.0,0.0,50,0.00,,FEW043,0.00,VWS V14.01,2013-03-28 01:51:00,
2013-03-27 20:53:00,35.2,18.5,30.32,East,87,0.0,0.0,50,0.00,,FEW043,0.00,VWS V14.01,2013-03-28 01:53:00,
2013-03-27 20:54:00,35.4,18.6,30.32,East,87,0.0,0.0,50,0.00,,FEW043,0.00,VWS V14.01,2013-03-28 01:54:00,
2013-03-27 20:56:00,35.6,17.9,30.32,East,87,0.0,0.0,48,0.00,,FEW043,0.00,VWS V14.01,2013-03-28 01:56:00,
2013-03-27 20:58:00,35.6,17.9,30.32,East,88,2.7,2.7,48,0.00,,FEW043,0.00,VWS V14.01,2013-03-28 01:58:00,
2013-03-27 20:59:00,35.6,17.9,30.32,East,88,2.7,2.7,48,0.00,,FEW043,0.00,VWS V14.01,2013-03-28 01:59:00,
2013-03-27 21:01:00,35.8,18.0,30.32,ESE,103,3.6,3.6,48,0.00,,FEW043,0.00,VWS V14.01,2013-03-28 02:01:00,
2013-03-27 21:03:00,36.0,16.2,30.32,ESE,103,0.0,0.0,44,0.00,,FEW043,0.00,VWS V14.01,2013-03-28 02:03:00,
2013-03-27 21:04:00,36.0,16.2,30.32,ESE,103,0.0,0.0,44,0.00,,FEW043,0.00,VWS V14.01,2013-03-28 02:04:00,
2013-03-27 21:05:00,36.1,16.4,30.32,ESE,103,0.0,0.0,44,0.00,,FEW043,0.00,VWS V14.01,2013-03-28 02:05:00,
2013-03-27 21:07:00,36.1,16.4,30.32,ESE,103,0.0,0.0,44,0.00,,FEW043,0.00,VWS V14.01,2013-03-28 02:07:00,
2013-03-27 21:09:00,36.1,16.4,30.29,ESE,103,0.0,0.0,44,0.00,,FEW043,0.00,VWS V14.01,2013-03-28 02:09:00,
2013-03-27 21:10:00,36.1,16.4,30.29,ESE,103,0.0,0.0,44,0.00,,FEW043,0.00,VWS V14.01,2013-03-28 02:10:00,
2013-03-27 21:12:00,36.1,16.4,30.29,ESE,103,0.0,0.0,44,0.00,,FEW043,0.00,VWS V14.01,2013-03-28 02:12:00,
2013-03-27 21:14:00,36.1,16.4,30.29,ESE,103,0.0,0.0,44,0.00,,FEW043,0.00,VWS V14.01,2013-03-28 02:14:00,
2013-03-27 21:16:00,36.0,16.2,30.29,ESE,103,0.0,0.0,44,0.00,,FEW043,0.00,VWS V14.01,2013-03-28 02:16:00,
2013-03-27 21:17:00,36.0,16.2,30.29,ESE,103,0.0,0.0,44,0.00,,FEW043,0.00,VWS V14.01,2013-03-28 02:17:00,
2013-03-27 21:19:00,35.8,16.0,30.29,ESE,103,0.0,0.0,44,0.00,,FEW043,0.00,VWS V14.01,2013-03-28 02:19:00,
2013-03-27 21:21:00,35.6,15.9,30.29,ESE,103,0.0,0.0,44,0.00,,FEW043,0.00,VWS V14.01,2013-03-28 02:21:00,
2013-03-27 21:22:00,35.6,15.9,30.29,ESE,103,0.0,0.0,44,0.00,,FEW043,0.00,VWS V14.01,2013-03-28 02:22:00,
2013-03-27 21:25:00,35.4,15.7,30.32,ESE,103,0.0,0.0,44,0.00,,FEW043,0.00,VWS V14.01,2013-03-28 02:25:00,
2013-03-27 21:27:00,35.4,15.7,30.32,ESE,103,0.0,0.0,44,0.00,,FEW043,0.00,VWS V14.01,2013-03-28 02:27:00,
2013-03-27 21:29:00,35.1,15.4,30.32,ESE,103,0.0,0.0,44,0.00,,FEW043,0.00,VWS V14.01,2013-03-28 02:29:00,
2013-03-27 21:32:00,35.1,15.4,30.32,ESE,103,0.0,2.7,44,0.00,,FEW043,0.00,VWS V14.01,2013-03-28 02:32:00,
2013-03-27 21:33:00,34.9,15.2,30.32,ESE,103,0.0,0.0,44,0.00,,FEW043,0.00,VWS V14.01,2013-03-28 02:33:00,
2013-03-27 21:34:00,34.9,15.2,30.32,ESE,103,0.0,0.0,44,0.00,,FEW043,0.00,VWS V14.01,2013-03-28 02:34:00,
2013-03-27 21:38:00,34.5,14.9,30.32,ESE,103,0.0,0.0,44,0.00,,FEW043,0.00,VWS V14.01,2013-03-28 02:38:00,
2013-03-27 21:39:00,34.5,14.9,30.32,ESE,103,0.0,0.0,44,0.00,,FEW043,0.00,VWS V14.01,2013-03-28 02:39:00,
2013-03-27 21:41:00,34.3,17.6,30.32,ESE,103,3.1,3.1,50,0.00,,FEW043,0.00,VWS V14.01,2013-03-28 02:41:00,
2013-03-27 21:43:00,34.3,17.6,30.32,ESE,103,0.0,0.0,50,0.00,,FEW043,0.00,VWS V14.01,2013-03-28 02:43:00,
2013-03-27 21:44:00,34.3,17.6,30.32,ESE,103,0.0,0.0,50,0.00,,FEW043,0.00,VWS V14.01,2013-03-28 02:44:00,
2013-03-27 21:46:00,34.2,17.5,30.32,East,101,0.0,0.0,50,0.00,,FEW043,0.00,VWS V14.01,2013-03-28 02:46:00,
2013-03-27 21:48:00,34.0,17.3,30.32,East,97,0.0,0.0,50,0.00,,FEW043,0.00,VWS V14.01,2013-03-28 02:48:00,
2013-03-27 21:49:00,34.0,17.3,30.32,East,97,0.0,0.0,50,0.00,,FEW043,0.00,VWS V14.01,2013-03-28 02:49:00,
2013-03-27 21:53:00,33.8,17.1,30.32,East,97,0.0,0.0,50,0.00,,FEW043,0.00,VWS V14.01,2013-03-28 02:53:00,
2013-03-27 21:54:00,33.8,17.1,30.32,East,97,0.0,0.0,50,0.00,,FEW043,0.00,VWS V14.01,2013-03-28 02:54:00,
2013-03-27 21:55:00,33.8,17.1,30.32,East,97,0.0,0.0,50,0.00,,FEW043,0.00,VWS V14.01,2013-03-28 02:55:00,
2013-03-27 21:58:00,33.6,17.0,30.32,East,97,0.0,0.0,50,0.00,,FEW043,0.00,VWS V14.01,2013-03-28 02:58:00,
2013-03-27 21:59:00,33.6,17.0,30.32,East,97,0.0,0.0,50,0.00,,FEW043,0.00,VWS V14.01,2013-03-28 02:59:00,
2013-03-27 22:00:00,33.4,16.8,30.32,East,97,0.0,0.0,50,0.00,,FEW043,0.00,VWS V14.01,2013-03-28 03:00:00,
2013-03-27 22:03:00,33.3,16.6,30.32,East,97,2.7,2.7,50,0.00,,FEW043,0.00,VWS V14.01,2013-03-28 03:03:00,
2013-03-27 22:05:00,33.3,16.6,30.32,East,85,0.0,3.1,50,0.00,,FEW043,0.00,VWS V14.01,2013-03-28 03:05:00,
2013-03-27 22:06:00,33.3,16.6,30.32,East,85,3.1,3.1,50,0.00,,FEW043,0.00,VWS V14.01,2013-03-28 03:06:00,
2013-03-27 22:08:00,33.3,16.6,30.32,East,85,0.0,3.1,50,0.00,,FEW043,0.00,VWS V14.01,2013-03-28 03:08:00,
2013-03-27 22:10:00,33.3,16.6,30.32,East,85,0.0,0.0,50,0.00,,FEW043,0.00,VWS V14.01,2013-03-28 03:10:00,
2013-03-27 22:11:00,33.4,16.8,30.32,East,85,0.0,0.0,50,0.00,,FEW043,0.00,VWS V14.01,2013-03-28 03:11:00,
2013-03-27 22:14:00,33.4,16.8,30.32,East,85,0.0,0.0,50,0.00,,FEW043,0.00,VWS V14.01,2013-03-28 03:14:00,
2013-03-27 22:15:00,33.6,17.0,30.32,East,85,0.0,0.0,50,0.00,,FEW043,0.00,VWS V14.01,2013-03-28 03:15:00,
2013-03-27 22:16:00,33.6,17.0,30.32,East,85,0.0,0.0,50,0.00,,FEW043,0.00,VWS V14.01,2013-03-28 03:16:00,
2013-03-27 22:17:00,33.8,18.9,30.32,East,85,0.0,0.0,54,0.00,,FEW043,0.00,VWS V14.01,2013-03-28 03:17:00,
2013-03-27 22:19:00,33.8,18.9,30.32,East,85,0.0,0.0,54,0.00,,FEW043,0.00,VWS V14.01,2013-03-28 03:19:00,
2013-03-27 22:20:00,34.0,19.1,30.32,ESE,118,0.0,0.0,54,0.00,,FEW043,0.00,VWS V14.01,2013-03-28 03:20:00,
2013-03-27 22:22:00,34.2,19.3,30.32,ESE,120,0.0,0.0,54,0.00,,FEW043,0.00,VWS V14.01,2013-03-28 03:22:00,
2013-03-27 22:23:00,34.2,19.3,30.32,SE,124,0.0,0.0,54,0.00,,FEW043,0.00,VWS V14.01,2013-03-28 03:23:00,
2013-03-27 22:25:00,34.3,17.6,30.32,SE,126,0.0,0.0,50,0.00,,FEW043,0.00,VWS V14.01,2013-03-28 03:25:00,
2013-03-27 22:26:00,34.5,17.8,30.32,SSE,155,3.6,4.0,50,0.00,,FEW043,0.00,VWS V14.01,2013-03-28 03:26:00,
2013-03-27 22:28:00,34.7,18.0,30.32,SE,129,5.4,5.4,50,0.00,,FEW043,0.00,VWS V14.01,2013-03-28 03:28:00,
2013-03-27 22:30:00,34.7,18.0,30.32,SE,136,4.0,4.0,50,0.00,,FEW043,0.00,VWS V14.01,2013-03-28 03:30:00,
2013-03-27 22:31:00,34.9,18.1,30.32,SE,135,3.6,4.9,50,0.00,,FEW043,0.00,VWS V14.01,2013-03-28 03:31:00,
2013-03-27 22:33:00,34.9,18.1,30.32,SE,144,3.1,5.4,50,0.00,,FEW043,0.00,VWS V14.01,2013-03-28 03:33:00,
2013-03-27 22:35:00,34.9,18.1,30.32,SSE,150,3.6,4.0,50,0.00,,FEW043,0.00,VWS V14.01,2013-03-28 03:35:00,
2013-03-27 22:37:00,34.9,18.1,30.32,SSE,150,4.0,4.0,50,0.00,,FEW043,0.00,VWS V14.01,2013-03-28 03:37:00,
2013-03-27 22:38:00,34.9,18.1,30.32,SSE,150,4.9,4.9,50,0.00,,FEW043,0.00,VWS V14.01,2013-03-28 03:38:00,
2013-03-27 22:39:00,34.9,18.1,30.32,SSE,149,4.0,4.0,50,0.00,,FEW043,0.00,VWS V14.01,2013-03-28 03:39:00,
2013-03-27 22:40:00,34.9,18.1,30.32,SSE,162,4.0,4.0,50,0.00,,FEW043,0.00,VWS V14.01,2013-03-28 03:40:00,
2013-03-27 22:42:00,34.9,18.1,30.32,SSE,156,2.7,4.0,50,0.00,,FEW043,0.00,VWS V14.01,2013-03-28 03:42:00,
2013-03-27 22:43:00,34.9,18.1,30.32,SSE,147,3.6,3.6,50,0.00,,FEW043,0.00,VWS V14.01,2013-03-28 03:43:00,
2013-03-27 22:44:00,34.9,18.1,30.32,SE,142,3.1,5.8,50,0.00,,FEW043,0.00,VWS V14.01,2013-03-28 03:44:00,
2013-03-27 22:46:00,34.9,18.1,30.32,SE,131,4.0,4.0,50,0.00,,FEW043,0.00,VWS V14.01,2013-03-28 03:46:00,
2013-03-27 22:48:00,34.9,18.1,30.32,SE,138,3.6,3.6,50,0.00,,FEW043,0.00,VWS V14.01,2013-03-28 03:48:00,
2013-03-27 22:51:00,34.9,18.1,30.32,SE,141,2.7,4.0,50,0.00,,FEW043,0.00,VWS V14.01,2013-03-28 03:51:00,
2013-03-27 22:52:00,34.9,18.1,30.32,SE,141,3.1,3.6,50,0.00,,FEW043,0.00,VWS V14.01,2013-03-28 03:52:00,
2013-03-27 22:53:00,34.9,18.1,30.32,SE,141,3.6,4.0,50,0.00,,FEW043,0.00,VWS V14.01,2013-03-28 03:53:00,
2013-03-27 22:54:00,34.9,18.1,30.32,SE,131,3.6,3.6,50,0.00,,FEW043,0.00,VWS V14.01,2013-03-28 03:54:00,
2013-03-27 22:57:00,35.1,18.3,30.32,SE,126,5.8,5.8,50,0.00,,FEW043,0.00,VWS V14.01,2013-03-28 03:57:00,
2013-03-27 22:58:00,35.1,18.3,30.32,ESE,123,5.8,5.8,50,0.00,,FEW043,0.00,VWS V14.01,2013-03-28 03:58:00,
2013-03-27 22:59:00,35.1,18.3,30.32,ESE,120,3.1,6.3,50,0.00,,FEW043,0.00,VWS V14.01,2013-03-28 03:59:00,
2013-03-27 23:00:00,35.1,18.3,30.32,ESE,122,6.3,6.3,50,0.00,,FEW043,0.00,VWS V14.01,2013-03-28 04:00:00,
2013-03-27 23:05:00,35.1,15.4,30.32,SE,129,2.7,4.0,44,0.00,,FEW043,0.00,VWS V14.01,2013-03-28 04:05:00,
2013-03-27 23:07:00,35.1,15.4,30.32,SE,129,2.7,2.7,44,0.00,,FEW043,0.00,VWS V14.01,2013-03-28 04:07:00,
2013-03-27 23:10:00,35.1,15.4,30.32,ESE,123,3.1,5.4,44,0.00,,FEW043,0.00,VWS V14.01,2013-03-28 04:10:00,
2013-03-27 23:11:00,35.1,15.4,30.32,ESE,123,0.0,5.4,44,0.00,,FEW043,0.00,VWS V14.01,2013-03-28 04:11:00,
2013-03-27 23:12:00,35.1,15.4,30.32,SE,124,2.7,2.7,44,0.00,,FEW043,0.00,VWS V14.01,2013-03-28 04:12:00,
2013-03-27 23:15:00,34.9,15.2,30.32,SE,124,0.0,0.0,44,0.00,,FEW043,0.00,VWS V14.01,2013-03-28 04:15:00,
2013-03-27 23:17:00,34.9,15.2,30.32,SE,124,0.0,0.0,44,0.00,,FEW043,0.00,VWS V14.01,2013-03-28 04:17:00,
2013-03-27 23:18:00,34.7,15.0,30.32,ESE,120,2.7,3.6,44,0.00,,FEW043,0.00,VWS V14.01,2013-03-28 04:18:00,
2013-03-27 23:22:00,34.5,14.9,30.32,ESE,121,0.0,2.7,44,0.00,,FEW043,0.00,VWS V14.01,2013-03-28 04:22:00,
2013-03-27 23:23:00,34.5,14.9,30.32,SE,127,3.1,4.0,44,0.00,,FEW043,0.00,VWS V14.01,2013-03-28 04:23:00,
2013-03-27 23:28:00,34.2,17.5,30.32,SE,146,0.0,2.7,50,0.00,,FEW043,0.00,VWS V14.01,2013-03-28 04:28:00,
2013-03-27 23:30:00,34.0,17.3,30.32,SE,146,3.1,3.1,50,0.00,,FEW043,0.00,VWS V14.01,2013-03-28 04:30:00,
2013-03-27 23:33:00,33.8,17.1,30.32,SE,133,3.6,4.9,50,0.00,,FEW043,0.00,VWS V14.01,2013-03-28 04:33:00,
2013-03-27 23:35:00,33.6,17.0,30.32,SE,133,4.0,4.0,50,0.00,,FEW043,0.00,VWS V14.01,2013-03-28 04:35:00,
2013-03-27 23:38:00,33.6,17.0,30.32,SE,142,3.1,4.0,50,0.00,,FEW043,0.00,VWS V14.01,2013-03-28 04:38:00,
2013-03-27 23:39:00,33.6,17.0,30.32,SE,142,2.7,4.0,50,0.00,,FEW043,0.00,VWS V14.01,2013-03-28 04:39:00,
2013-03-27 23:41:00,33.6,17.0,30.32,SE,140,2.7,4.0,50,0.00,,FEW043,0.00,VWS V14.01,2013-03-28 04:41:00,
2013-03-27 23:43:00,33.4,16.8,30.32,SE,140,2.7,2.7,50,0.00,,FEW043,0.00,VWS V14.01,2013-03-28 04:43:00,
2013-03-27 23:44:00,33.4,16.8,30.32,SE,140,0.0,2.7,50,0.00,,FEW043,0.00,VWS V14.01,2013-03-28 04:44:00,
2013-03-27 23:47:00,33.3,16.6,30.32,SE,140,0.0,0.0,50,0.00,,FEW043,0.00,VWS V14.01,2013-03-28 04:47:00,
2013-03-27 23:49:00,33.3,16.6,30.32,SE,140,0.0,0.0,50,0.00,,FEW043,0.00,VWS V14.01,2013-03-28 04:49:00,
2013-03-27 23:50:00,33.3,16.6,30.32,SE,140,0.0,0.0,50,0.00,,FEW043,0.00,VWS V14.01,2013-03-28 04:50:00,
2013-03-27 23:52:00,33.1,16.5,30.32,SE,140,2.7,2.7,50,0.00,,FEW043,0.00,VWS V14.01,2013-03-28 04:52:00,
2013-03-27 23:54:00,33.1,16.5,30.32,SE,140,0.0,0.0,50,0.00,,FEW043,0.00,VWS V14.01,2013-03-28 04:54:00,
2013-03-27 23:55:00,33.1,16.5,30.32,SE,140,0.0,0.0,50,0.00,,FEW043,0.00,VWS V14.01,2013-03-28 04:55:00,
2013-03-27 23:57:00,33.1,16.5,30.32,SE,140,0.0,0.0,50,0.00,,FEW043,0.00,VWS V14.01,2013-03-28 04:57:00,